Time,TemperatureF,DewpointF,PressureIn,WindDirection,WindDirectionDegrees,WindSpeedMPH,WindSpeedGustMPH,Humidity,HourlyPrecipIn,Conditions,Clouds,dailyrainin,SoftwareType,DateUTC
2013-09-08 00:01:00,63.3,56.3,30.20,South,180,2.0,3.0,78,0.00,,,0.00,meteohub,2013-09-08 04:01:00,
2013-09-08 00:02:00,63.3,56.3,30.20,WSW,248,2.0,3.0,78,0.00,,,0.00,meteohub,2013-09-08 04:02:00,
2013-09-08 00:03:00,63.3,56.3,30.20,WSW,248,2.0,3.0,78,0.00,,,0.00,meteohub,2013-09-08 04:03:00,
2013-09-08 00:06:00,63.3,56.3,30.20,WSW,248,4.0,4.0,78,0.00,,,0.00,meteohub,2013-09-08 04:06:00,
2013-09-08 00:07:00,63.3,56.3,30.20,South,180,2.0,3.0,78,0.00,,,0.00,meteohub,2013-09-08 04:07:00,
2013-09-08 00:08:00,63.3,56.3,30.20,WSW,248,2.0,3.0,78,0.00,,,0.00,meteohub,2013-09-08 04:08:00,
2013-09-08 00:09:00,63.3,56.3,30.20,WSW,248,2.0,3.0,78,0.00,,,0.00,meteohub,2013-09-08 04:09:00,
2013-09-08 00:10:00,63.3,56.3,30.20,WSW,248,2.0,4.0,78,0.00,,,0.00,meteohub,2013-09-08 04:10:00,
2013-09-08 00:11:00,63.3,56.3,30.21,South,180,2.0,4.0,78,0.00,,,0.00,meteohub,2013-09-08 04:11:00,
2013-09-08 00:12:00,63.3,56.3,30.20,WSW,248,2.0,4.0,78,0.00,,,0.00,meteohub,2013-09-08 04:12:00,
2013-09-08 00:14:00,63.3,56.3,30.20,South,180,2.0,4.0,78,0.00,,,0.00,meteohub,2013-09-08 04:14:00,
2013-09-08 00:15:00,63.3,56.3,30.21,South,180,2.0,4.0,78,0.00,,,0.00,meteohub,2013-09-08 04:15:00,
2013-09-08 00:16:00,63.3,56.3,30.21,South,180,2.0,4.0,78,0.00,,,0.00,meteohub,2013-09-08 04:16:00,
2013-09-08 00:18:00,63.3,56.3,30.21,South,180,1.0,4.0,78,0.00,,,0.00,meteohub,2013-09-08 04:18:00,
2013-09-08 00:20:00,63.3,56.3,30.21,SE,135,3.0,4.0,78,0.00,,,0.00,meteohub,2013-09-08 04:20:00,
2013-09-08 00:21:00,63.3,56.7,30.21,South,180,2.0,4.0,79,0.00,,,0.00,meteohub,2013-09-08 04:21:00,
2013-09-08 00:22:00,63.3,56.7,30.21,SE,135,2.0,4.0,79,0.00,,,0.00,meteohub,2013-09-08 04:22:00,
2013-09-08 00:23:00,63.3,56.7,30.21,SE,135,2.0,4.0,79,0.00,,,0.00,meteohub,2013-09-08 04:23:00,
2013-09-08 00:26:00,63.1,56.5,30.21,SE,135,0.0,4.0,79,0.00,,,0.00,meteohub,2013-09-08 04:26:00,
2013-09-08 00:27:00,63.1,56.5,30.21,South,180,0.0,4.0,79,0.00,,,0.00,meteohub,2013-09-08 04:27:00,
2013-09-08 00:28:00,63.1,56.5,30.21,SE,135,0.0,4.0,79,0.00,,,0.00,meteohub,2013-09-08 04:28:00,
2013-09-08 00:29:00,63.1,56.5,30.20,SE,135,0.0,4.0,79,0.00,,,0.00,meteohub,2013-09-08 04:29:00,
2013-09-08 00:32:00,63.0,56.7,30.21,East,90,1.0,4.0,80,0.00,,,0.00,meteohub,2013-09-08 04:32:00,
2013-09-08 00:33:00,63.0,56.7,30.20,East,90,1.0,4.0,80,0.00,,,0.00,meteohub,2013-09-08 04:33:00,
2013-09-08 00:34:00,63.0,56.7,30.20,SE,135,1.0,4.0,80,0.00,,,0.00,meteohub,2013-09-08 04:34:00,
2013-09-08 00:35:00,63.0,57.0,30.21,North,0,1.0,3.0,81,0.00,,,0.00,meteohub,2013-09-08 04:35:00,
2013-09-08 00:37:00,63.0,56.7,30.21,West,270,0.0,3.0,80,0.00,,,0.00,meteohub,2013-09-08 04:37:00,
2013-09-08 00:38:00,63.0,56.7,30.21,West,270,0.0,3.0,80,0.00,,,0.00,meteohub,2013-09-08 04:38:00,
2013-09-08 00:40:00,63.0,57.0,30.21,West,270,2.0,2.0,81,0.00,,,0.00,meteohub,2013-09-08 04:40:00,
2013-09-08 00:41:00,63.0,57.0,30.21,West,270,2.0,2.0,81,0.00,,,0.00,meteohub,2013-09-08 04:41:00,
2013-09-08 00:42:00,63.0,57.0,30.22,North,0,1.0,2.0,81,0.00,,,0.00,meteohub,2013-09-08 04:42:00,
2013-09-08 00:43:00,63.0,57.0,30.22,North,0,1.0,2.0,81,0.00,,,0.00,meteohub,2013-09-08 04:43:00,
2013-09-08 00:46:00,63.0,57.4,30.22,NW,315,1.0,2.0,82,0.00,,,0.00,meteohub,2013-09-08 04:46:00,
2013-09-08 00:48:00,62.8,57.6,30.22,NW,315,2.0,2.0,83,0.00,,,0.00,meteohub,2013-09-08 04:48:00,
2013-09-08 00:49:00,62.8,57.6,30.22,NW,315,2.0,2.0,83,0.00,,,0.00,meteohub,2013-09-08 04:49:00,
2013-09-08 00:50:00,63.0,57.7,30.22,NW,315,2.0,2.0,83,0.00,,,0.00,meteohub,2013-09-08 04:50:00,
2013-09-08 00:51:00,63.0,57.7,30.22,North,0,3.0,3.0,83,0.00,,,0.00,meteohub,2013-09-08 04:51:00,
2013-09-08 00:52:00,63.0,57.7,30.23,NW,315,2.0,2.0,83,0.00,,,0.00,meteohub,2013-09-08 04:52:00,
2013-09-08 00:53:00,63.0,58.1,30.22,WSW,248,5.0,5.0,84,0.00,,,0.00,meteohub,2013-09-08 04:53:00,
2013-09-08 00:54:00,63.0,58.1,30.22,WSW,248,5.0,5.0,84,0.00,,,0.00,meteohub,2013-09-08 04:54:00,
2013-09-08 00:57:00,62.4,58.5,30.22,WSW,248,4.0,4.0,87,0.01,,,0.01,meteohub,2013-09-08 04:57:00,
2013-09-08 00:58:00,62.4,58.5,30.22,WSW,248,4.0,4.0,87,0.01,,,0.01,meteohub,2013-09-08 04:58:00,
2013-09-08 00:59:00,62.2,58.3,30.22,West,270,2.0,3.0,87,0.01,,,0.01,meteohub,2013-09-08 04:59:00,
2013-09-08 01:01:00,61.9,58.6,30.22,NW,315,2.0,5.0,89,0.05,,,0.05,meteohub,2013-09-08 05:01:00,
2013-09-08 01:02:00,61.7,58.5,30.22,West,270,2.0,5.0,89,0.05,,,0.05,meteohub,2013-09-08 05:02:00,
2013-09-08 01:03:00,61.3,58.5,30.22,WSW,248,2.0,5.0,90,0.05,,,0.05,meteohub,2013-09-08 05:03:00,
2013-09-08 01:04:00,61.3,58.5,30.22,WSW,248,2.0,5.0,90,0.05,,,0.05,meteohub,2013-09-08 05:04:00,
2013-09-08 01:07:00,61.0,58.3,30.22,East,90,2.0,5.0,91,0.08,,,0.08,meteohub,2013-09-08 05:07:00,
2013-09-08 01:08:00,61.0,58.3,30.22,East,90,2.0,5.0,91,0.08,,,0.08,meteohub,2013-09-08 05:08:00,
2013-09-08 01:09:00,60.8,58.1,30.21,NE,45,1.0,5.0,91,0.08,,,0.08,meteohub,2013-09-08 05:09:00,
2013-09-08 01:11:00,60.8,58.1,30.22,WSW,248,1.0,4.0,91,0.09,,,0.09,meteohub,2013-09-08 05:11:00,
2013-09-08 01:13:00,60.6,58.3,30.22,WSW,248,2.0,4.0,92,0.09,,,0.09,meteohub,2013-09-08 05:13:00,
2013-09-08 01:14:00,60.6,58.3,30.22,WSW,248,2.0,4.0,92,0.09,,,0.09,meteohub,2013-09-08 05:14:00,
2013-09-08 01:15:00,60.6,58.6,30.22,East,90,2.0,4.0,93,0.09,,,0.09,meteohub,2013-09-08 05:15:00,
2013-09-08 01:16:00,60.4,58.5,30.21,South,180,1.0,4.0,93,0.09,,,0.09,meteohub,2013-09-08 05:16:00,
2013-09-08 01:19:00,60.4,58.5,30.21,SE,135,2.0,4.0,93,0.09,,,0.09,meteohub,2013-09-08 05:19:00,
2013-09-08 01:20:00,60.4,58.6,30.21,South,180,2.0,2.0,94,0.11,,,0.09,meteohub,2013-09-08 05:20:00,
2013-09-08 01:21:00,60.4,58.6,30.21,South,180,1.0,2.0,94,0.11,,,0.09,meteohub,2013-09-08 05:21:00,
2013-09-08 01:22:00,60.4,58.6,30.21,South,180,2.0,2.0,94,0.11,,,0.09,meteohub,2013-09-08 05:22:00,
2013-09-08 01:25:00,60.3,58.8,30.21,South,180,2.0,2.0,95,0.11,,,0.09,meteohub,2013-09-08 05:25:00,
2013-09-08 01:26:00,60.3,58.8,30.21,South,180,1.0,3.0,95,0.11,,,0.11,meteohub,2013-09-08 05:26:00,
2013-09-08 01:27:00,60.3,58.8,30.21,WSW,248,4.0,4.0,95,0.11,,,0.11,meteohub,2013-09-08 05:27:00,
2013-09-08 01:30:00,60.3,58.8,30.22,WSW,248,0.0,4.0,95,0.11,,,0.11,meteohub,2013-09-08 05:30:00,
2013-09-08 01:31:00,60.3,58.8,30.22,NE,45,1.0,4.0,95,0.11,,,0.11,meteohub,2013-09-08 05:31:00,
2013-09-08 01:32:00,60.3,58.8,30.21,NE,45,1.0,4.0,95,0.11,,,0.11,meteohub,2013-09-08 05:32:00,
2013-09-08 01:33:00,60.3,58.8,30.22,NE,45,1.0,4.0,95,0.11,,,0.11,meteohub,2013-09-08 05:33:00,
2013-09-08 01:35:00,60.3,58.8,30.22,West,270,3.0,4.0,95,0.11,,,0.11,meteohub,2013-09-08 05:35:00,
2013-09-08 01:36:00,60.3,58.8,30.21,West,270,2.0,4.0,95,0.11,,,0.11,meteohub,2013-09-08 05:36:00,
2013-09-08 01:39:00,60.3,58.8,30.21,WSW,248,2.0,4.0,95,0.11,,,0.11,meteohub,2013-09-08 05:39:00,
2013-09-08 01:41:00,60.3,58.8,30.21,SE,135,1.0,4.0,95,0.13,,,0.13,meteohub,2013-09-08 05:41:00,
2013-09-08 01:44:00,60.1,58.6,30.21,SE,135,1.0,4.0,95,0.13,,,0.13,meteohub,2013-09-08 05:44:00,
2013-09-08 01:46:00,60.1,58.6,30.21,North,0,2.0,3.0,95,0.20,,,0.20,meteohub,2013-09-08 05:46:00,
2013-09-08 01:47:00,60.1,58.6,30.22,North,0,2.0,3.0,95,0.20,,,0.20,meteohub,2013-09-08 05:47:00,
2013-09-08 01:49:00,59.9,58.8,30.22,NE,45,1.0,3.0,96,0.20,,,0.20,meteohub,2013-09-08 05:49:00,
2013-09-08 01:50:00,59.9,58.8,30.22,NE,45,1.0,3.0,96,0.20,,,0.20,meteohub,2013-09-08 05:50:00,
2013-09-08 01:51:00,59.9,58.8,30.22,South,180,2.0,3.0,96,0.21,,,0.21,meteohub,2013-09-08 05:51:00,
2013-09-08 01:52:00,59.9,58.8,30.21,South,180,2.0,3.0,96,0.21,,,0.21,meteohub,2013-09-08 05:52:00,
2013-09-08 01:53:00,59.9,58.8,30.21,South,180,2.0,3.0,96,0.21,,,0.21,meteohub,2013-09-08 05:53:00,
2013-09-08 01:55:00,59.7,58.6,30.21,SE,135,2.0,2.0,96,0.19,,,0.21,meteohub,2013-09-08 05:55:00,
2013-09-08 01:56:00,59.9,58.8,30.21,East,90,2.0,2.0,96,0.19,,,0.21,meteohub,2013-09-08 05:56:00,
2013-09-08 01:57:00,59.9,58.8,30.21,South,180,1.0,2.0,96,0.19,,,0.21,meteohub,2013-09-08 05:57:00,
2013-09-08 01:58:00,59.7,58.6,30.21,SE,135,2.0,2.0,96,0.19,,,0.21,meteohub,2013-09-08 05:58:00,
2013-09-08 02:00:00,59.7,58.8,30.21,SE,135,2.0,2.0,97,0.19,,,0.21,meteohub,2013-09-08 06:00:00,
2013-09-08 02:01:00,59.7,58.8,30.21,South,180,2.0,2.0,97,0.17,,,0.21,meteohub,2013-09-08 06:01:00,
2013-09-08 02:03:00,59.7,58.8,30.20,South,180,2.0,2.0,97,0.17,,,0.21,meteohub,2013-09-08 06:03:00,
2013-09-08 02:05:00,59.7,58.8,30.20,South,180,2.0,2.0,97,0.13,,,0.21,meteohub,2013-09-08 06:05:00,
2013-09-08 02:07:00,59.7,58.8,30.20,South,180,2.0,2.0,97,0.13,,,0.21,meteohub,2013-09-08 06:07:00,
2013-09-08 02:08:00,59.7,58.8,30.20,South,180,2.0,2.0,97,0.13,,,0.21,meteohub,2013-09-08 06:08:00,
2013-09-08 02:09:00,59.7,59.2,30.20,South,180,3.0,3.0,98,0.13,,,0.21,meteohub,2013-09-08 06:09:00,
2013-09-08 02:10:00,59.7,59.2,30.20,South,180,2.0,2.0,98,0.12,,,0.21,meteohub,2013-09-08 06:10:00,
2013-09-08 02:11:00,59.7,59.2,30.21,West,270,3.0,3.0,98,0.12,,,0.21,meteohub,2013-09-08 06:11:00,
2013-09-08 02:14:00,59.7,59.2,30.20,South,180,3.0,3.0,98,0.12,,,0.21,meteohub,2013-09-08 06:14:00,
2013-09-08 02:15:00,59.7,59.2,30.20,WSW,248,2.0,5.0,98,0.13,,,0.22,meteohub,2013-09-08 06:15:00,
2013-09-08 02:17:00,59.7,59.2,30.20,South,180,2.0,5.0,98,0.13,,,0.22,meteohub,2013-09-08 06:17:00,
2013-09-08 02:19:00,59.7,59.2,30.20,South,180,2.0,5.0,98,0.13,,,0.22,meteohub,2013-09-08 06:19:00,
2013-09-08 02:20:00,59.7,59.2,30.20,East,90,3.0,5.0,98,0.12,,,0.22,meteohub,2013-09-08 06:20:00,
2013-09-08 02:21:00,59.7,59.2,30.20,East,90,3.0,5.0,98,0.12,,,0.22,meteohub,2013-09-08 06:21:00,
2013-09-08 02:24:00,59.5,59.0,30.20,South,180,4.0,5.0,98,0.12,,,0.22,meteohub,2013-09-08 06:24:00,
2013-09-08 02:25:00,59.5,59.0,30.20,South,180,4.0,5.0,98,0.12,,,0.22,meteohub,2013-09-08 06:25:00,
2013-09-08 02:26:00,59.5,59.0,30.20,SE,135,3.0,5.0,98,0.12,,,0.22,meteohub,2013-09-08 06:26:00,
2013-09-08 02:28:00,59.5,59.0,30.20,WSW,248,3.0,5.0,98,0.12,,,0.22,meteohub,2013-09-08 06:28:00,
2013-09-08 02:30:00,59.5,59.0,30.20,South,180,3.0,5.0,98,0.12,,,0.22,meteohub,2013-09-08 06:30:00,
2013-09-08 02:31:00,59.5,59.2,30.20,SE,135,3.0,5.0,99,0.12,,,0.22,meteohub,2013-09-08 06:31:00,
2013-09-08 02:32:00,59.5,59.2,30.20,SE,135,4.0,5.0,99,0.12,,,0.22,meteohub,2013-09-08 06:32:00,
2013-09-08 02:34:00,59.5,59.2,30.20,South,180,4.0,5.0,99,0.12,,,0.22,meteohub,2013-09-08 06:34:00,
2013-09-08 02:36:00,59.5,59.2,30.20,South,180,4.0,5.0,99,0.12,,,0.22,meteohub,2013-09-08 06:36:00,
2013-09-08 02:37:00,59.5,59.2,30.20,South,180,4.0,5.0,99,0.12,,,0.22,meteohub,2013-09-08 06:37:00,
2013-09-08 02:38:00,59.5,59.2,30.20,SE,135,4.0,5.0,99,0.12,,,0.22,meteohub,2013-09-08 06:38:00,
2013-09-08 02:39:00,59.5,59.0,30.19,South,180,3.0,5.0,98,0.12,,,0.22,meteohub,2013-09-08 06:39:00,
2013-09-08 02:41:00,59.4,58.8,30.20,WSW,248,2.0,5.0,98,0.09,,,0.22,meteohub,2013-09-08 06:41:00,
2013-09-08 02:44:00,59.4,59.0,30.20,SE,135,4.0,5.0,99,0.09,,,0.22,meteohub,2013-09-08 06:44:00,
2013-09-08 02:45:00,59.4,59.0,30.20,South,180,4.0,4.0,99,0.02,,,0.22,meteohub,2013-09-08 06:45:00,
2013-09-08 02:47:00,59.5,59.2,30.20,South,180,8.0,8.0,99,0.02,,,0.22,meteohub,2013-09-08 06:47:00,
2013-09-08 02:49:00,59.4,59.0,30.19,South,180,4.0,4.0,99,0.02,,,0.22,meteohub,2013-09-08 06:49:00,
2013-09-08 02:50:00,59.4,59.0,30.19,South,180,4.0,4.0,99,0.02,,,0.22,meteohub,2013-09-08 06:50:00,
2013-09-08 02:51:00,59.5,59.2,30.20,South,180,3.0,8.0,99,0.01,,,0.22,meteohub,2013-09-08 06:51:00,
2013-09-08 02:52:00,59.5,59.2,30.19,South,180,2.0,8.0,99,0.01,,,0.22,meteohub,2013-09-08 06:52:00,
2013-09-08 02:54:00,59.5,59.2,30.20,WSW,248,2.0,8.0,99,0.01,,,0.22,meteohub,2013-09-08 06:54:00,
2013-09-08 02:55:00,59.5,59.2,30.19,South,180,4.0,8.0,99,0.01,,,0.22,meteohub,2013-09-08 06:55:00,
2013-09-08 02:56:00,59.5,59.2,30.19,East,90,3.0,8.0,99,0.01,,,0.22,meteohub,2013-09-08 06:56:00,
2013-09-08 02:57:00,59.5,59.2,30.19,East,90,3.0,8.0,99,0.01,,,0.22,meteohub,2013-09-08 06:57:00,
2013-09-08 02:59:00,59.4,59.0,30.19,North,0,3.0,8.0,99,0.01,,,0.22,meteohub,2013-09-08 06:59:00,
2013-09-08 03:00:00,59.4,59.0,30.19,SE,135,3.0,8.0,99,0.01,,,0.22,meteohub,2013-09-08 07:00:00,
2013-09-08 03:01:00,59.4,59.0,30.19,SE,135,3.0,8.0,99,0.01,,,0.22,meteohub,2013-09-08 07:01:00,
2013-09-08 03:02:00,59.4,59.0,30.19,SE,135,3.0,8.0,99,0.01,,,0.22,meteohub,2013-09-08 07:02:00,
2013-09-08 03:03:00,59.4,59.0,30.19,SE,135,3.0,8.0,99,0.01,,,0.22,meteohub,2013-09-08 07:03:00,
2013-09-08 03:05:00,59.4,59.0,30.19,SE,135,3.0,6.0,99,0.01,,,0.22,meteohub,2013-09-08 07:05:00,
2013-09-08 03:06:00,59.4,59.0,30.19,SE,135,3.0,6.0,99,0.01,,,0.22,meteohub,2013-09-08 07:06:00,
2013-09-08 03:07:00,59.4,59.0,30.19,SE,135,3.0,6.0,99,0.01,,,0.22,meteohub,2013-09-08 07:07:00,
2013-09-08 03:08:00,59.4,59.0,30.19,West,270,2.0,6.0,99,0.01,,,0.22,meteohub,2013-09-08 07:08:00,
2013-09-08 03:09:00,59.4,59.0,30.19,SE,135,4.0,6.0,99,0.01,,,0.22,meteohub,2013-09-08 07:09:00,
2013-09-08 03:11:00,59.4,59.0,30.19,SE,135,6.0,6.0,99,0.01,,,0.22,meteohub,2013-09-08 07:11:00,
2013-09-08 03:12:00,59.4,59.0,30.19,South,180,3.0,4.0,99,0.01,,,0.22,meteohub,2013-09-08 07:12:00,
2013-09-08 03:13:00,59.4,59.0,30.19,WSW,248,3.0,4.0,99,0.01,,,0.22,meteohub,2013-09-08 07:13:00,
2013-09-08 03:15:00,59.4,59.0,30.19,SE,135,4.0,4.0,99,0.01,,,0.22,meteohub,2013-09-08 07:15:00,
2013-09-08 03:16:00,59.4,59.0,30.19,South,180,4.0,6.0,99,0.00,,,0.22,meteohub,2013-09-08 07:16:00,
2013-09-08 03:17:00,59.4,59.0,30.19,South,180,5.0,6.0,99,0.00,,,0.22,meteohub,2013-09-08 07:17:00,
2013-09-08 03:18:00,59.4,59.0,30.19,South,180,2.0,6.0,99,0.00,,,0.22,meteohub,2013-09-08 07:18:00,
2013-09-08 03:20:00,59.4,59.0,30.19,South,180,2.0,6.0,99,0.00,,,0.22,meteohub,2013-09-08 07:20:00,
2013-09-08 03:21:00,59.4,59.0,30.19,South,180,2.0,6.0,99,0.00,,,0.22,meteohub,2013-09-08 07:21:00,
2013-09-08 03:22:00,59.4,59.0,30.19,WSW,248,2.0,6.0,99,0.00,,,0.22,meteohub,2013-09-08 07:22:00,
2013-09-08 03:23:00,59.4,59.0,30.19,WSW,248,3.0,6.0,99,0.00,,,0.22,meteohub,2013-09-08 07:23:00,
2013-09-08 03:24:00,59.4,59.0,30.19,NNE,23,4.0,6.0,99,0.00,,,0.22,meteohub,2013-09-08 07:24:00,
2013-09-08 03:26:00,59.4,59.0,30.19,South,180,4.0,6.0,99,0.00,,,0.22,meteohub,2013-09-08 07:26:00,
2013-09-08 03:27:00,59.4,59.0,30.18,West,270,4.0,6.0,99,0.00,,,0.22,meteohub,2013-09-08 07:27:00,
2013-09-08 03:30:00,59.4,59.0,30.18,South,180,2.0,6.0,99,0.00,,,0.22,meteohub,2013-09-08 07:30:00,
2013-09-08 03:31:00,59.4,59.0,30.19,WSW,248,5.0,5.0,99,0.00,,,0.22,meteohub,2013-09-08 07:31:00,
2013-09-08 03:33:00,59.4,59.0,30.18,South,180,4.0,5.0,99,0.00,,,0.22,meteohub,2013-09-08 07:33:00,
2013-09-08 03:34:00,59.4,59.0,30.19,South,180,3.0,5.0,99,0.00,,,0.22,meteohub,2013-09-08 07:34:00,
2013-09-08 03:36:00,59.4,59.0,30.19,South,180,2.0,7.0,99,0.00,,,0.22,meteohub,2013-09-08 07:36:00,
2013-09-08 03:38:00,59.4,59.0,30.19,SE,135,2.0,7.0,99,0.00,,,0.22,meteohub,2013-09-08 07:38:00,
2013-09-08 03:40:00,59.4,59.0,30.19,South,180,3.0,7.0,99,0.00,,,0.22,meteohub,2013-09-08 07:40:00,
2013-09-08 03:41:00,59.2,58.8,30.18,SE,135,3.0,7.0,99,0.00,,,0.22,meteohub,2013-09-08 07:41:00,
2013-09-08 03:42:00,59.2,58.8,30.18,SE,135,3.0,7.0,99,0.00,,,0.22,meteohub,2013-09-08 07:42:00,
2013-09-08 03:43:00,59.2,58.8,30.19,South,180,2.0,7.0,99,0.00,,,0.22,meteohub,2013-09-08 07:43:00,
2013-09-08 03:44:00,59.2,58.8,30.19,WNW,293,3.0,7.0,99,0.00,,,0.22,meteohub,2013-09-08 07:44:00,
2013-09-08 03:46:00,59.2,58.8,30.19,South,180,4.0,7.0,99,0.00,,,0.22,meteohub,2013-09-08 07:46:00,
2013-09-08 03:47:00,59.2,58.8,30.19,SE,135,4.0,7.0,99,0.00,,,0.22,meteohub,2013-09-08 07:47:00,
2013-09-08 03:48:00,59.2,58.8,30.18,South,180,3.0,7.0,99,0.00,,,0.22,meteohub,2013-09-08 07:48:00,
2013-09-08 03:51:00,59.2,58.8,30.18,WSW,248,2.0,4.0,99,0.00,,,0.22,meteohub,2013-09-08 07:51:00,
2013-09-08 03:52:00,59.2,58.8,30.18,WSW,248,2.0,4.0,99,0.00,,,0.22,meteohub,2013-09-08 07:52:00,
2013-09-08 03:53:00,59.2,58.8,30.18,WSW,248,3.0,4.0,99,0.00,,,0.22,meteohub,2013-09-08 07:53:00,
2013-09-08 03:55:00,59.2,58.8,30.18,South,180,4.0,6.0,99,0.00,,,0.22,meteohub,2013-09-08 07:55:00,
2013-09-08 03:56:00,59.2,58.8,30.18,West,270,8.0,8.0,99,0.00,,,0.22,meteohub,2013-09-08 07:56:00,
2013-09-08 03:57:00,59.2,58.8,30.18,West,270,8.0,8.0,99,0.00,,,0.22,meteohub,2013-09-08 07:57:00,
2013-09-08 03:58:00,59.2,58.8,30.18,South,180,2.0,6.0,99,0.00,,,0.22,meteohub,2013-09-08 07:58:00,
2013-09-08 04:00:00,59.2,58.8,30.18,South,180,4.0,8.0,99,0.00,,,0.22,meteohub,2013-09-08 08:00:00,
2013-09-08 04:02:00,59.2,58.8,30.18,South,180,3.0,8.0,99,0.00,,,0.22,meteohub,2013-09-08 08:02:00,
2013-09-08 04:03:00,59.2,58.8,30.18,WSW,248,4.0,8.0,99,0.00,,,0.22,meteohub,2013-09-08 08:03:00,
2013-09-08 04:04:00,59.2,58.8,30.18,WSW,248,4.0,8.0,99,0.00,,,0.22,meteohub,2013-09-08 08:04:00,
2013-09-08 04:07:00,59.2,58.8,30.18,South,180,3.0,8.0,99,0.00,,,0.22,meteohub,2013-09-08 08:07:00,
2013-09-08 04:08:00,59.4,59.0,30.18,South,180,4.0,8.0,99,0.00,,,0.22,meteohub,2013-09-08 08:08:00,
2013-09-08 04:10:00,59.4,59.0,30.18,South,180,4.0,8.0,99,0.00,,,0.22,meteohub,2013-09-08 08:10:00,
2013-09-08 04:12:00,59.4,59.0,30.18,SE,135,2.0,8.0,99,0.00,,,0.22,meteohub,2013-09-08 08:12:00,
2013-09-08 04:13:00,59.4,59.0,30.18,SE,135,2.0,8.0,99,0.00,,,0.22,meteohub,2013-09-08 08:13:00,
2013-09-08 04:14:00,59.4,59.0,30.18,WSW,248,4.0,8.0,99,0.00,,,0.22,meteohub,2013-09-08 08:14:00,
2013-09-08 04:15:00,59.4,59.0,30.18,South,180,2.0,4.0,99,0.00,,,0.22,meteohub,2013-09-08 08:15:00,
2013-09-08 04:16:00,59.4,59.0,30.18,SE,135,4.0,4.0,99,0.00,,,0.22,meteohub,2013-09-08 08:16:00,
2013-09-08 04:18:00,59.4,59.0,30.18,South,180,4.0,4.0,99,0.00,,,0.22,meteohub,2013-09-08 08:18:00,
2013-09-08 04:19:00,59.4,59.0,30.18,South,180,4.0,4.0,99,0.00,,,0.22,meteohub,2013-09-08 08:19:00,
2013-09-08 04:21:00,59.4,59.0,30.18,South,180,3.0,5.0,99,0.00,,,0.22,meteohub,2013-09-08 08:21:00,
2013-09-08 04:23:00,59.4,59.0,30.18,South,180,4.0,5.0,99,0.00,,,0.22,meteohub,2013-09-08 08:23:00,
2013-09-08 04:24:00,59.4,59.0,30.18,South,180,4.0,5.0,99,0.00,,,0.22,meteohub,2013-09-08 08:24:00,
2013-09-08 04:26:00,59.4,59.0,30.18,South,180,3.0,5.0,99,0.00,,,0.22,meteohub,2013-09-08 08:26:00,
2013-09-08 04:29:00,59.4,59.0,30.18,SE,135,2.0,5.0,99,0.00,,,0.22,meteohub,2013-09-08 08:29:00,
2013-09-08 04:30:00,59.4,59.0,30.18,SE,135,2.0,5.0,99,0.00,,,0.22,meteohub,2013-09-08 08:30:00,
2013-09-08 04:32:00,59.4,59.0,30.18,SE,135,2.0,5.0,99,0.00,,,0.22,meteohub,2013-09-08 08:32:00,
2013-09-08 04:33:00,59.4,59.0,30.19,SE,135,2.0,5.0,99,0.00,,,0.22,meteohub,2013-09-08 08:33:00,
2013-09-08 04:35:00,59.4,59.0,30.18,SE,135,2.0,5.0,99,0.00,,,0.22,meteohub,2013-09-08 08:35:00,
2013-09-08 04:36:00,59.4,59.0,30.18,SE,135,2.0,5.0,99,0.00,,,0.22,meteohub,2013-09-08 08:36:00,
2013-09-08 04:38:00,59.5,59.0,30.18,South,180,4.0,5.0,98,0.00,,,0.22,meteohub,2013-09-08 08:38:00,
2013-09-08 04:39:00,59.5,59.0,30.18,SE,135,3.0,5.0,98,0.00,,,0.22,meteohub,2013-09-08 08:39:00,
2013-09-08 04:40:00,59.5,59.0,30.18,South,180,3.0,5.0,98,0.00,,,0.22,meteohub,2013-09-08 08:40:00,
2013-09-08 04:42:00,59.5,59.0,30.18,SE,135,2.0,4.0,98,0.00,,,0.22,meteohub,2013-09-08 08:42:00,
2013-09-08 04:43:00,59.5,59.0,30.18,SE,135,5.0,5.0,98,0.00,,,0.22,meteohub,2013-09-08 08:43:00,
2013-09-08 04:44:00,59.5,59.0,30.18,WSW,248,4.0,4.0,98,0.00,,,0.22,meteohub,2013-09-08 08:44:00,
2013-09-08 04:45:00,59.7,59.2,30.18,South,180,4.0,5.0,98,0.00,,,0.22,meteohub,2013-09-08 08:45:00,
2013-09-08 04:47:00,59.7,59.2,30.18,South,180,4.0,5.0,98,0.00,,,0.22,meteohub,2013-09-08 08:47:00,
2013-09-08 04:48:00,59.5,59.0,30.18,South,180,2.0,5.0,98,0.00,,,0.22,meteohub,2013-09-08 08:48:00,
2013-09-08 04:50:00,59.5,59.0,30.18,SE,135,5.0,5.0,98,0.00,,,0.22,meteohub,2013-09-08 08:50:00,
2013-09-08 04:52:00,59.5,59.0,30.17,South,180,4.0,5.0,98,0.00,,,0.22,meteohub,2013-09-08 08:52:00,
2013-09-08 04:53:00,59.5,59.0,30.17,South,180,4.0,5.0,98,0.00,,,0.22,meteohub,2013-09-08 08:53:00,
2013-09-08 04:54:00,59.7,59.2,30.17,South,180,5.0,5.0,98,0.00,,,0.22,meteohub,2013-09-08 08:54:00,
2013-09-08 04:55:00,59.7,59.2,30.17,SE,135,4.0,7.0,98,0.00,,,0.22,meteohub,2013-09-08 08:55:00,
2013-09-08 04:58:00,59.7,59.2,30.18,South,180,2.0,7.0,98,0.00,,,0.22,meteohub,2013-09-08 08:58:00,
2013-09-08 04:59:00,59.7,59.2,30.18,South,180,3.0,7.0,98,0.00,,,0.22,meteohub,2013-09-08 08:59:00,
2013-09-08 05:02:00,59.7,58.8,30.18,SSE,158,3.0,7.0,97,0.00,,,0.22,meteohub,2013-09-08 09:02:00,
2013-09-08 05:03:00,59.7,58.8,30.18,SE,135,4.0,7.0,97,0.00,,,0.22,meteohub,2013-09-08 09:03:00,
2013-09-08 05:04:00,59.7,59.2,30.18,SE,135,4.0,7.0,98,0.00,,,0.22,meteohub,2013-09-08 09:04:00,
2013-09-08 05:05:00,59.9,59.0,30.18,SE,135,4.0,7.0,97,0.00,,,0.22,meteohub,2013-09-08 09:05:00,
2013-09-08 05:07:00,59.9,59.0,30.18,South,180,2.0,7.0,97,0.00,,,0.22,meteohub,2013-09-08 09:07:00,
2013-09-08 05:08:00,59.9,59.0,30.18,South,180,6.0,7.0,97,0.00,,,0.22,meteohub,2013-09-08 09:08:00,
2013-09-08 05:09:00,59.9,59.0,30.18,South,180,4.0,7.0,97,0.00,,,0.22,meteohub,2013-09-08 09:09:00,
2013-09-08 05:10:00,59.9,59.0,30.18,South,180,4.0,6.0,97,0.00,,,0.22,meteohub,2013-09-08 09:10:00,
2013-09-08 05:11:00,59.9,59.0,30.18,WSW,248,4.0,6.0,97,0.00,,,0.22,meteohub,2013-09-08 09:11:00,
2013-09-08 05:13:00,59.9,59.0,30.18,WSW,248,3.0,6.0,97,0.00,,,0.22,meteohub,2013-09-08 09:13:00,
2013-09-08 05:14:00,59.9,59.0,30.18,South,180,3.0,6.0,97,0.00,,,0.22,meteohub,2013-09-08 09:14:00,
2013-09-08 05:15:00,59.9,59.0,30.18,South,180,6.0,7.0,97,0.00,,,0.22,meteohub,2013-09-08 09:15:00,
2013-09-08 05:16:00,59.9,59.0,30.18,South,180,6.0,7.0,97,0.00,,,0.22,meteohub,2013-09-08 09:16:00,
2013-09-08 05:19:00,59.9,59.0,30.18,South,180,6.0,7.0,97,0.00,,,0.22,meteohub,2013-09-08 09:19:00,
2013-09-08 05:20:00,60.1,59.0,30.18,South,180,2.0,7.0,96,0.00,,,0.22,meteohub,2013-09-08 09:20:00,
2013-09-08 05:21:00,60.1,59.0,30.18,South,180,2.0,7.0,96,0.00,,,0.22,meteohub,2013-09-08 09:21:00,
2013-09-08 05:23:00,60.1,59.0,30.17,South,180,2.0,7.0,96,0.00,,,0.22,meteohub,2013-09-08 09:23:00,
2013-09-08 05:25:00,60.1,59.0,30.17,SE,135,2.0,7.0,96,0.00,,,0.22,meteohub,2013-09-08 09:25:00,
2013-09-08 05:26:00,60.1,59.0,30.17,SE,135,2.0,7.0,96,0.00,,,0.22,meteohub,2013-09-08 09:26:00,
2013-09-08 05:27:00,60.1,59.0,30.17,South,180,2.0,7.0,96,0.00,,,0.22,meteohub,2013-09-08 09:27:00,
2013-09-08 05:30:00,59.9,59.0,30.17,WSW,248,3.0,6.0,97,0.00,,,0.22,meteohub,2013-09-08 09:30:00,
2013-09-08 05:31:00,59.9,59.0,30.17,South,180,2.0,6.0,97,0.00,,,0.22,meteohub,2013-09-08 09:31:00,
2013-09-08 05:32:00,59.9,59.0,30.17,South,180,3.0,6.0,97,0.00,,,0.22,meteohub,2013-09-08 09:32:00,
2013-09-08 05:36:00,59.7,58.8,30.17,South,180,3.0,6.0,97,0.00,,,0.22,meteohub,2013-09-08 09:36:00,
2013-09-08 05:37:00,59.7,58.8,30.17,WSW,248,2.0,6.0,97,0.00,,,0.22,meteohub,2013-09-08 09:37:00,
2013-09-08 05:38:00,59.7,58.8,30.17,WSW,248,2.0,6.0,97,0.00,,,0.22,meteohub,2013-09-08 09:38:00,
2013-09-08 05:40:00,59.7,58.8,30.17,South,180,5.0,6.0,97,0.00,,,0.22,meteohub,2013-09-08 09:40:00,
2013-09-08 05:42:00,59.7,58.8,30.17,East,90,4.0,6.0,97,0.00,,,0.22,meteohub,2013-09-08 09:42:00,
2013-09-08 05:43:00,59.7,58.8,30.17,SE,135,2.0,6.0,97,0.00,,,0.22,meteohub,2013-09-08 09:43:00,
2013-09-08 05:44:00,59.7,59.2,30.17,WSW,248,4.0,6.0,98,0.00,,,0.22,meteohub,2013-09-08 09:44:00,
2013-09-08 05:46:00,59.7,59.2,30.17,SE,135,3.0,6.0,98,0.00,,,0.22,meteohub,2013-09-08 09:46:00,
2013-09-08 05:47:00,59.7,59.2,30.17,WSW,248,4.0,6.0,98,0.00,,,0.22,meteohub,2013-09-08 09:47:00,
2013-09-08 05:48:00,59.7,59.2,30.17,WSW,248,4.0,6.0,98,0.00,,,0.22,meteohub,2013-09-08 09:48:00,
2013-09-08 05:49:00,59.7,58.8,30.17,South,180,4.0,6.0,97,0.00,,,0.22,meteohub,2013-09-08 09:49:00,
2013-09-08 05:52:00,59.7,58.8,30.17,SE,135,4.0,6.0,97,0.00,,,0.22,meteohub,2013-09-08 09:52:00,
2013-09-08 05:53:00,59.9,59.0,30.18,West,270,5.0,6.0,97,0.00,,,0.22,meteohub,2013-09-08 09:53:00,
2013-09-08 05:55:00,59.9,59.0,30.18,South,180,1.0,6.0,97,0.00,,,0.22,meteohub,2013-09-08 09:55:00,
2013-09-08 05:56:00,59.9,59.0,30.18,WSW,248,1.0,5.0,97,0.00,,,0.22,meteohub,2013-09-08 09:56:00,
2013-09-08 05:58:00,59.9,59.0,30.18,SSE,158,2.0,5.0,97,0.00,,,0.22,meteohub,2013-09-08 09:58:00,
2013-09-08 05:59:00,59.9,59.0,30.18,SE,135,4.0,5.0,97,0.00,,,0.22,meteohub,2013-09-08 09:59:00,
2013-09-08 06:00:00,59.9,59.0,30.18,South,180,3.0,5.0,97,0.00,,,0.22,meteohub,2013-09-08 10:00:00,
2013-09-08 06:01:00,59.9,59.0,30.18,SE,135,4.0,5.0,97,0.00,,,0.22,meteohub,2013-09-08 10:01:00,
2013-09-08 06:03:00,59.9,59.0,30.18,South,180,4.0,5.0,97,0.00,,,0.22,meteohub,2013-09-08 10:03:00,
2013-09-08 06:04:00,59.9,59.0,30.18,South,180,4.0,5.0,97,0.00,,,0.22,meteohub,2013-09-08 10:04:00,
2013-09-08 06:05:00,59.9,59.0,30.18,WSW,248,4.0,5.0,97,0.00,,,0.22,meteohub,2013-09-08 10:05:00,
2013-09-08 06:06:00,59.9,59.0,30.18,WSW,248,4.0,5.0,97,0.00,,,0.22,meteohub,2013-09-08 10:06:00,
2013-09-08 06:08:00,59.9,58.8,30.18,SE,135,4.0,5.0,96,0.00,,,0.22,meteohub,2013-09-08 10:08:00,
2013-09-08 06:09:00,59.9,58.8,30.18,SE,135,4.0,5.0,96,0.00,,,0.22,meteohub,2013-09-08 10:09:00,
2013-09-08 06:10:00,59.9,59.0,30.18,South,180,4.0,5.0,97,0.00,,,0.22,meteohub,2013-09-08 10:10:00,
2013-09-08 06:11:00,59.9,58.8,30.18,SE,135,2.0,5.0,96,0.00,,,0.22,meteohub,2013-09-08 10:11:00,
2013-09-08 06:14:00,59.9,58.8,30.18,SE,135,2.0,5.0,96,0.00,,,0.22,meteohub,2013-09-08 10:14:00,
2013-09-08 06:15:00,59.9,58.8,30.18,South,180,2.0,5.0,96,0.00,,,0.22,meteohub,2013-09-08 10:15:00,
2013-09-08 06:17:00,59.9,58.8,30.18,SE,135,2.0,5.0,96,0.00,,,0.22,meteohub,2013-09-08 10:17:00,
2013-09-08 06:19:00,59.9,58.8,30.18,South,180,2.0,5.0,96,0.00,,,0.22,meteohub,2013-09-08 10:19:00,
2013-09-08 06:20:00,59.9,59.0,30.19,WSW,248,2.0,5.0,97,0.00,,,0.22,meteohub,2013-09-08 10:20:00,
2013-09-08 06:22:00,59.9,58.8,30.18,South,180,2.0,5.0,96,0.00,,,0.22,meteohub,2013-09-08 10:22:00,
2013-09-08 06:23:00,59.9,58.8,30.18,South,180,2.0,5.0,96,0.00,,,0.22,meteohub,2013-09-08 10:23:00,
2013-09-08 06:24:00,60.1,59.0,30.18,WSW,248,3.0,5.0,96,0.00,,,0.22,meteohub,2013-09-08 10:24:00,
2013-09-08 06:25:00,60.1,59.0,30.18,SE,135,4.0,5.0,96,0.00,,,0.22,meteohub,2013-09-08 10:25:00,
2013-09-08 06:27:00,60.1,59.0,30.18,SSE,158,4.0,5.0,96,0.00,,,0.22,meteohub,2013-09-08 10:27:00,
2013-09-08 06:30:00,60.3,59.2,30.18,East,90,2.0,4.0,96,0.00,,,0.22,meteohub,2013-09-08 10:30:00,
2013-09-08 06:31:00,60.3,59.2,30.18,East,90,2.0,4.0,96,0.00,,,0.22,meteohub,2013-09-08 10:31:00,
2013-09-08 06:32:00,60.3,59.2,30.18,WSW,248,4.0,4.0,96,0.00,,,0.22,meteohub,2013-09-08 10:32:00,
2013-09-08 06:33:00,60.3,59.2,30.18,WSW,248,4.0,4.0,96,0.00,,,0.22,meteohub,2013-09-08 10:33:00,
2013-09-08 06:34:00,60.3,59.2,30.18,South,180,3.0,4.0,96,0.00,,,0.22,meteohub,2013-09-08 10:34:00,
2013-09-08 06:36:00,60.3,59.2,30.18,SE,135,3.0,4.0,96,0.00,,,0.22,meteohub,2013-09-08 10:36:00,
2013-09-08 06:37:00,60.3,59.2,30.18,WSW,248,4.0,4.0,96,0.00,,,0.22,meteohub,2013-09-08 10:37:00,
2013-09-08 06:38:00,60.3,59.2,30.18,South,180,4.0,4.0,96,0.00,,,0.22,meteohub,2013-09-08 10:38:00,
2013-09-08 06:39:00,60.4,59.4,30.18,South,180,3.0,4.0,96,0.00,,,0.22,meteohub,2013-09-08 10:39:00,
2013-09-08 06:42:00,60.3,59.2,30.18,South,180,3.0,4.0,96,0.00,,,0.22,meteohub,2013-09-08 10:42:00,
2013-09-08 06:43:00,60.4,59.4,30.19,WSW,248,2.0,4.0,96,0.00,,,0.22,meteohub,2013-09-08 10:43:00,
2013-09-08 06:44:00,60.3,59.2,30.18,South,180,2.0,4.0,96,0.00,,,0.22,meteohub,2013-09-08 10:44:00,
2013-09-08 06:46:00,60.4,59.4,30.19,South,180,2.0,4.0,96,0.00,,,0.22,meteohub,2013-09-08 10:46:00,
2013-09-08 06:47:00,60.4,59.4,30.19,South,180,3.0,4.0,96,0.00,,,0.22,meteohub,2013-09-08 10:47:00,
2013-09-08 06:49:00,60.4,59.4,30.18,South,180,6.0,6.0,96,0.00,,,0.22,meteohub,2013-09-08 10:49:00,
2013-09-08 06:50:00,60.4,59.4,30.18,South,180,6.0,6.0,96,0.00,,,0.22,meteohub,2013-09-08 10:50:00,
2013-09-08 06:52:00,60.4,59.4,30.18,South,180,6.0,6.0,96,0.00,,,0.22,meteohub,2013-09-08 10:52:00,
2013-09-08 06:54:00,60.4,59.4,30.18,South,180,6.0,6.0,96,0.00,,,0.22,meteohub,2013-09-08 10:54:00,
2013-09-08 06:55:00,60.4,59.4,30.18,South,180,6.0,6.0,96,0.00,,,0.22,meteohub,2013-09-08 10:55:00,
2013-09-08 06:57:00,60.4,59.0,30.19,South,180,1.0,6.0,95,0.00,,,0.22,meteohub,2013-09-08 10:57:00,
2013-09-08 06:59:00,60.4,59.0,30.19,South,180,2.0,6.0,95,0.00,,,0.22,meteohub,2013-09-08 10:59:00,
2013-09-08 07:00:00,60.4,59.0,30.19,South,180,3.0,6.0,95,0.00,,,0.22,meteohub,2013-09-08 11:00:00,
2013-09-08 07:01:00,60.4,59.4,30.19,South,180,3.0,6.0,96,0.00,,,0.22,meteohub,2013-09-08 11:01:00,
2013-09-08 07:02:00,60.4,59.4,30.19,South,180,4.0,6.0,96,0.00,,,0.22,meteohub,2013-09-08 11:02:00,
2013-09-08 07:06:00,60.4,59.0,30.19,SE,135,4.0,6.0,95,0.00,,,0.22,meteohub,2013-09-08 11:06:00,
2013-09-08 07:07:00,60.6,59.2,30.19,SE,135,2.0,6.0,95,0.00,,,0.22,meteohub,2013-09-08 11:07:00,
2013-09-08 07:08:00,60.6,59.2,30.19,SE,135,2.0,6.0,95,0.00,,,0.22,meteohub,2013-09-08 11:08:00,
2013-09-08 07:09:00,60.6,59.5,30.19,SE,135,2.0,6.0,96,0.00,,,0.22,meteohub,2013-09-08 11:09:00,
2013-09-08 07:11:00,60.6,59.2,30.19,South,180,2.0,6.0,95,0.00,,,0.22,meteohub,2013-09-08 11:11:00,
2013-09-08 07:13:00,60.8,59.4,30.19,South,180,2.0,6.0,95,0.00,,,0.22,meteohub,2013-09-08 11:13:00,
2013-09-08 07:14:00,60.8,59.4,30.19,SE,135,2.0,6.0,95,0.00,,,0.22,meteohub,2013-09-08 11:14:00,
2013-09-08 07:16:00,60.8,59.4,30.19,South,180,3.0,5.0,95,0.00,,,0.22,meteohub,2013-09-08 11:16:00,
2013-09-08 07:17:00,60.8,59.4,30.19,SE,135,2.0,5.0,95,0.00,,,0.22,meteohub,2013-09-08 11:17:00,
2013-09-08 07:18:00,61.0,59.5,30.19,WSW,248,4.0,5.0,95,0.00,,,0.22,meteohub,2013-09-08 11:18:00,
2013-09-08 07:20:00,61.0,59.5,30.19,WSW,248,4.0,4.0,95,0.00,,,0.22,meteohub,2013-09-08 11:20:00,
2013-09-08 07:21:00,61.0,59.5,30.19,WSW,248,4.0,4.0,95,0.00,,,0.22,meteohub,2013-09-08 11:21:00,
2013-09-08 07:22:00,61.0,59.5,30.19,WSW,248,4.0,4.0,95,0.00,,,0.22,meteohub,2013-09-08 11:22:00,
2013-09-08 07:23:00,61.2,59.7,30.19,WSW,248,2.0,4.0,95,0.00,,,0.22,meteohub,2013-09-08 11:23:00,
2013-09-08 07:24:00,61.2,59.7,30.19,WSW,248,2.0,4.0,95,0.00,,,0.22,meteohub,2013-09-08 11:24:00,
2013-09-08 07:26:00,61.2,59.7,30.19,South,180,2.0,4.0,95,0.00,,,0.22,meteohub,2013-09-08 11:26:00,
2013-09-08 07:27:00,61.2,59.7,30.19,South,180,2.0,4.0,95,0.00,,,0.22,meteohub,2013-09-08 11:27:00,
2013-09-08 07:28:00,61.2,59.7,30.19,South,180,4.0,4.0,95,0.00,,,0.22,meteohub,2013-09-08 11:28:00,
2013-09-08 07:32:00,61.3,59.5,30.19,SE,135,2.0,5.0,94,0.00,,,0.22,meteohub,2013-09-08 11:32:00,
2013-09-08 07:33:00,61.3,59.5,30.19,WSW,248,2.0,5.0,94,0.00,,,0.22,meteohub,2013-09-08 11:33:00,
2013-09-08 07:34:00,61.5,59.7,30.19,South,180,2.0,5.0,94,0.00,,,0.22,meteohub,2013-09-08 11:34:00,
2013-09-08 07:38:00,61.5,59.7,30.19,South,180,2.0,5.0,94,0.00,,,0.22,meteohub,2013-09-08 11:38:00,
2013-09-08 07:39:00,61.5,59.7,30.19,South,180,2.0,5.0,94,0.00,,,0.22,meteohub,2013-09-08 11:39:00,
2013-09-08 07:40:00,61.5,59.7,30.20,South,180,2.0,5.0,94,0.00,,,0.22,meteohub,2013-09-08 11:40:00,
2013-09-08 07:41:00,61.5,59.7,30.19,WSW,248,2.0,5.0,94,0.00,,,0.22,meteohub,2013-09-08 11:41:00,
2013-09-08 07:42:00,61.5,59.7,30.19,South,180,2.0,5.0,94,0.00,,,0.22,meteohub,2013-09-08 11:42:00,
2013-09-08 07:44:00,61.5,59.7,30.19,South,180,2.0,5.0,94,0.00,,,0.22,meteohub,2013-09-08 11:44:00,
2013-09-08 07:45:00,61.5,59.7,30.19,South,180,2.0,4.0,94,0.00,,,0.22,meteohub,2013-09-08 11:45:00,
2013-09-08 07:48:00,61.7,59.9,30.20,South,180,2.0,4.0,94,0.00,,,0.22,meteohub,2013-09-08 11:48:00,
2013-09-08 07:50:00,61.7,59.9,30.20,SE,135,2.0,4.0,94,0.00,,,0.22,meteohub,2013-09-08 11:50:00,
2013-09-08 07:51:00,61.7,59.9,30.20,South,180,2.0,4.0,94,0.00,,,0.22,meteohub,2013-09-08 11:51:00,
2013-09-08 07:53:00,61.7,59.9,30.20,South,180,3.0,4.0,94,0.00,,,0.22,meteohub,2013-09-08 11:53:00,
2013-09-08 07:56:00,61.9,59.9,30.19,South,180,4.0,4.0,93,0.00,,,0.22,meteohub,2013-09-08 11:56:00,
2013-09-08 07:57:00,61.9,59.9,30.19,South,180,4.0,4.0,93,0.00,,,0.22,meteohub,2013-09-08 11:57:00,
2013-09-08 07:58:00,61.9,59.9,30.19,WSW,248,2.0,4.0,93,0.00,,,0.22,meteohub,2013-09-08 11:58:00,
2013-09-08 08:00:00,62.1,60.1,30.19,South,180,1.0,4.0,93,0.00,,,0.22,meteohub,2013-09-08 12:00:00,
2013-09-08 08:01:00,62.2,60.3,30.19,SE,135,1.0,4.0,93,0.00,,,0.22,meteohub,2013-09-08 12:01:00,
2013-09-08 08:02:00,62.2,60.4,30.19,South,180,0.0,4.0,94,0.00,,,0.22,meteohub,2013-09-08 12:02:00,
2013-09-08 08:03:00,62.2,60.4,30.19,South,180,0.0,4.0,94,0.00,,,0.22,meteohub,2013-09-08 12:03:00,
2013-09-08 08:04:00,62.4,60.4,30.19,South,180,2.0,4.0,93,0.00,,,0.22,meteohub,2013-09-08 12:04:00,
2013-09-08 08:06:00,62.8,60.8,30.19,South,180,3.0,4.0,93,0.00,,,0.22,meteohub,2013-09-08 12:06:00,
2013-09-08 08:07:00,62.8,60.8,30.19,South,180,3.0,4.0,93,0.00,,,0.22,meteohub,2013-09-08 12:07:00,
2013-09-08 08:09:00,63.0,60.3,30.19,South,180,4.0,4.0,91,0.00,,,0.22,meteohub,2013-09-08 12:09:00,
2013-09-08 08:11:00,63.5,60.8,30.19,WSW,248,2.0,4.0,91,0.00,,,0.22,meteohub,2013-09-08 12:11:00,
2013-09-08 08:12:00,63.5,60.8,30.19,South,180,4.0,4.0,91,0.00,,,0.22,meteohub,2013-09-08 12:12:00,
2013-09-08 08:14:00,63.7,61.0,30.19,South,180,2.0,4.0,91,0.00,,,0.22,meteohub,2013-09-08 12:14:00,
2013-09-08 08:15:00,63.7,61.0,30.19,South,180,2.0,4.0,91,0.00,,,0.22,meteohub,2013-09-08 12:15:00,
2013-09-08 08:17:00,64.0,61.3,30.19,South,180,1.0,4.0,91,0.00,,,0.22,meteohub,2013-09-08 12:17:00,
2013-09-08 08:19:00,64.2,61.2,30.19,SE,135,2.0,4.0,90,0.00,,,0.22,meteohub,2013-09-08 12:19:00,
2013-09-08 08:20:00,64.2,61.2,30.19,SE,135,2.0,4.0,90,0.00,,,0.22,meteohub,2013-09-08 12:20:00,
2013-09-08 08:22:00,64.2,61.2,30.20,South,180,2.0,4.0,90,0.00,,,0.22,meteohub,2013-09-08 12:22:00,
2013-09-08 08:24:00,64.4,61.3,30.19,South,180,1.0,4.0,90,0.00,,,0.22,meteohub,2013-09-08 12:24:00,
2013-09-08 08:25:00,64.4,61.3,30.19,South,180,1.0,4.0,90,0.00,,,0.22,meteohub,2013-09-08 12:25:00,
2013-09-08 08:27:00,64.4,61.3,30.20,WSW,248,1.0,4.0,90,0.00,,,0.22,meteohub,2013-09-08 12:27:00,
2013-09-08 08:30:00,64.6,61.5,30.20,South,180,3.0,4.0,90,0.00,,,0.22,meteohub,2013-09-08 12:30:00,
2013-09-08 08:31:00,64.6,61.5,30.20,South,180,3.0,4.0,90,0.00,,,0.22,meteohub,2013-09-08 12:31:00,
2013-09-08 08:32:00,64.8,61.7,30.20,WSW,248,2.0,4.0,90,0.00,,,0.22,meteohub,2013-09-08 12:32:00,
2013-09-08 08:33:00,64.6,61.3,30.20,WSW,248,3.0,4.0,89,0.00,,,0.22,meteohub,2013-09-08 12:33:00,
2013-09-08 08:35:00,64.6,61.3,30.20,South,180,2.0,4.0,89,0.00,,,0.22,meteohub,2013-09-08 12:35:00,
2013-09-08 08:38:00,64.6,61.3,30.20,WSW,248,4.0,4.0,89,0.00,,,0.22,meteohub,2013-09-08 12:38:00,
2013-09-08 08:39:00,64.6,61.3,30.20,East,90,3.0,4.0,89,0.00,,,0.22,meteohub,2013-09-08 12:39:00,
2013-09-08 08:40:00,64.6,61.3,30.20,WSW,248,2.0,4.0,89,0.00,,,0.22,meteohub,2013-09-08 12:40:00,
2013-09-08 08:41:00,64.6,61.3,30.20,WSW,248,2.0,4.0,89,0.00,,,0.22,meteohub,2013-09-08 12:41:00,
2013-09-08 08:44:00,64.8,61.7,30.20,South,180,1.0,4.0,90,0.00,,,0.22,meteohub,2013-09-08 12:44:00,
2013-09-08 08:45:00,64.8,61.5,30.20,WSW,248,2.0,4.0,89,0.00,,,0.22,meteohub,2013-09-08 12:45:00,
2013-09-08 08:46:00,65.1,62.1,30.20,NE,45,2.0,4.0,90,0.00,,,0.22,meteohub,2013-09-08 12:46:00,
2013-09-08 08:47:00,65.1,62.1,30.21,SE,135,2.0,4.0,90,0.00,,,0.22,meteohub,2013-09-08 12:47:00,
2013-09-08 08:48:00,65.3,62.1,30.20,South,180,2.0,4.0,89,0.00,,,0.22,meteohub,2013-09-08 12:48:00,
2013-09-08 08:49:00,65.3,62.1,30.20,South,180,1.0,4.0,89,0.00,,,0.22,meteohub,2013-09-08 12:49:00,
2013-09-08 08:50:00,65.5,62.2,30.20,WSW,248,0.0,4.0,89,0.00,,,0.22,meteohub,2013-09-08 12:50:00,
2013-09-08 08:51:00,65.5,62.2,30.20,South,180,2.0,4.0,89,0.00,,,0.22,meteohub,2013-09-08 12:51:00,
2013-09-08 08:52:00,65.7,62.2,30.20,West,270,0.0,4.0,89,0.00,,,0.22,meteohub,2013-09-08 12:52:00,
2013-09-08 08:53:00,65.7,62.1,30.19,WSW,248,4.0,4.0,88,0.00,,,0.22,meteohub,2013-09-08 12:53:00,
2013-09-08 08:54:00,65.7,62.2,30.20,South,180,2.0,4.0,89,0.00,,,0.22,meteohub,2013-09-08 12:54:00,
2013-09-08 08:55:00,65.8,62.4,30.20,South,180,1.0,4.0,89,0.00,,,0.22,meteohub,2013-09-08 12:55:00,
2013-09-08 08:56:00,66.0,62.6,30.20,North,0,2.0,4.0,89,0.00,,,0.22,meteohub,2013-09-08 12:56:00,
2013-09-08 08:57:00,66.0,62.4,30.20,East,90,2.0,4.0,88,0.00,,,0.22,meteohub,2013-09-08 12:57:00,
2013-09-08 08:58:00,66.2,62.8,30.20,South,180,1.0,4.0,89,0.00,,,0.22,meteohub,2013-09-08 12:58:00,
2013-09-08 09:00:00,66.4,63.0,30.20,West,270,1.0,4.0,89,0.00,,,0.22,meteohub,2013-09-08 13:00:00,
2013-09-08 09:02:00,66.6,62.6,30.20,West,270,4.0,4.0,87,0.00,,,0.22,meteohub,2013-09-08 13:02:00,
2013-09-08 09:03:00,66.6,62.6,30.20,South,180,2.0,4.0,87,0.00,,,0.22,meteohub,2013-09-08 13:03:00,
2013-09-08 09:04:00,66.6,62.6,30.20,South,180,2.0,4.0,87,0.00,,,0.22,meteohub,2013-09-08 13:04:00,
2013-09-08 09:05:00,66.7,62.8,30.20,East,90,2.0,4.0,87,0.00,,,0.22,meteohub,2013-09-08 13:05:00,
2013-09-08 09:06:00,66.7,62.8,30.20,East,90,2.0,4.0,87,0.00,,,0.22,meteohub,2013-09-08 13:06:00,
2013-09-08 09:07:00,66.7,62.4,30.20,NE,45,4.0,4.0,86,0.00,,,0.22,meteohub,2013-09-08 13:07:00,
2013-09-08 09:08:00,66.7,62.4,30.21,South,180,2.0,4.0,86,0.00,,,0.22,meteohub,2013-09-08 13:08:00,
2013-09-08 09:09:00,66.9,62.6,30.21,WSW,248,2.0,4.0,86,0.00,,,0.22,meteohub,2013-09-08 13:09:00,
2013-09-08 09:11:00,66.9,62.6,30.20,West,270,2.0,4.0,86,0.00,,,0.22,meteohub,2013-09-08 13:11:00,
2013-09-08 09:13:00,67.1,62.8,30.21,SE,135,1.0,4.0,86,0.00,,,0.22,meteohub,2013-09-08 13:13:00,
2013-09-08 09:14:00,67.1,63.1,30.21,WSW,248,0.0,4.0,87,0.00,,,0.22,meteohub,2013-09-08 13:14:00,
2013-09-08 09:16:00,67.1,62.8,30.21,NW,315,2.0,4.0,86,0.00,,,0.22,meteohub,2013-09-08 13:16:00,
2013-09-08 09:17:00,67.1,62.8,30.20,WSW,248,2.0,4.0,86,0.00,,,0.22,meteohub,2013-09-08 13:17:00,
2013-09-08 09:18:00,67.1,62.8,30.20,West,270,2.0,4.0,86,0.00,,,0.22,meteohub,2013-09-08 13:18:00,
2013-09-08 09:20:00,67.1,63.1,30.21,West,270,2.0,4.0,87,0.00,,,0.22,meteohub,2013-09-08 13:20:00,
2013-09-08 09:21:00,67.1,62.8,30.21,SE,135,2.0,4.0,86,0.00,,,0.22,meteohub,2013-09-08 13:21:00,
2013-09-08 09:22:00,67.1,62.8,30.21,SE,135,2.0,4.0,86,0.00,,,0.22,meteohub,2013-09-08 13:22:00,
2013-09-08 09:23:00,67.1,62.8,30.21,WSW,248,2.0,4.0,86,0.00,,,0.22,meteohub,2013-09-08 13:23:00,
2013-09-08 09:24:00,67.1,63.1,30.20,WSW,248,2.0,4.0,87,0.00,,,0.22,meteohub,2013-09-08 13:24:00,
2013-09-08 09:25:00,67.3,63.3,30.20,SE,135,2.0,4.0,87,0.00,,,0.22,meteohub,2013-09-08 13:25:00,
2013-09-08 09:26:00,67.3,63.3,30.20,SE,135,2.0,4.0,87,0.00,,,0.22,meteohub,2013-09-08 13:26:00,
2013-09-08 09:27:00,67.5,63.5,30.21,East,90,0.0,4.0,87,0.00,,,0.22,meteohub,2013-09-08 13:27:00,
2013-09-08 09:28:00,67.5,63.9,30.21,South,180,1.0,4.0,88,0.00,,,0.22,meteohub,2013-09-08 13:28:00,
2013-09-08 09:31:00,67.8,64.2,30.20,North,0,0.0,4.0,88,0.00,,,0.22,meteohub,2013-09-08 13:31:00,
2013-09-08 09:32:00,68.2,63.9,30.20,South,180,4.0,4.0,86,0.00,,,0.22,meteohub,2013-09-08 13:32:00,
2013-09-08 09:33:00,68.2,63.9,30.20,South,180,2.0,4.0,86,0.00,,,0.22,meteohub,2013-09-08 13:33:00,
2013-09-08 09:36:00,69.3,64.2,30.21,West,270,3.0,4.0,84,0.00,,,0.22,meteohub,2013-09-08 13:36:00,
2013-09-08 09:37:00,69.4,64.4,30.21,NE,45,2.0,4.0,84,0.00,,,0.22,meteohub,2013-09-08 13:37:00,
2013-09-08 09:38:00,69.4,64.4,30.21,West,270,2.0,4.0,84,0.00,,,0.22,meteohub,2013-09-08 13:38:00,
2013-09-08 09:39:00,69.4,64.4,30.21,NW,315,3.0,4.0,84,0.00,,,0.22,meteohub,2013-09-08 13:39:00,
2013-09-08 09:41:00,69.4,63.7,30.21,East,90,3.0,4.0,82,0.00,,,0.22,meteohub,2013-09-08 13:41:00,
2013-09-08 09:42:00,69.3,63.5,30.21,NE,45,3.0,4.0,82,0.00,,,0.22,meteohub,2013-09-08 13:42:00,
2013-09-08 09:43:00,69.1,63.3,30.21,WSW,248,2.0,4.0,82,0.00,,,0.22,meteohub,2013-09-08 13:43:00,
2013-09-08 09:44:00,69.1,63.7,30.20,South,180,1.0,4.0,83,0.00,,,0.22,meteohub,2013-09-08 13:44:00,
2013-09-08 09:46:00,69.3,63.5,30.21,NW,315,3.0,4.0,82,0.00,,,0.22,meteohub,2013-09-08 13:46:00,
2013-09-08 09:47:00,69.4,63.7,30.21,WSW,248,3.0,4.0,82,0.00,,,0.22,meteohub,2013-09-08 13:47:00,
2013-09-08 09:48:00,69.6,63.9,30.21,North,0,3.0,4.0,82,0.00,,,0.22,meteohub,2013-09-08 13:48:00,
2013-09-08 09:49:00,69.6,63.5,30.21,West,270,4.0,4.0,81,0.00,,,0.22,meteohub,2013-09-08 13:49:00,
2013-09-08 09:51:00,70.0,64.2,30.21,South,180,2.0,4.0,82,0.00,,,0.22,meteohub,2013-09-08 13:51:00,
2013-09-08 09:52:00,70.2,64.8,30.20,NW,315,1.0,4.0,83,0.00,,,0.22,meteohub,2013-09-08 13:52:00,
2013-09-08 09:54:00,70.7,64.9,30.21,North,0,2.0,4.0,82,0.00,,,0.22,meteohub,2013-09-08 13:54:00,
2013-09-08 09:55:00,70.7,64.9,30.21,North,0,2.0,4.0,82,0.00,,,0.22,meteohub,2013-09-08 13:55:00,
2013-09-08 09:56:00,71.1,64.2,30.21,NW,315,4.0,4.0,79,0.00,,,0.22,meteohub,2013-09-08 13:56:00,
2013-09-08 09:58:00,70.7,63.9,30.21,West,270,2.0,4.0,79,0.00,,,0.22,meteohub,2013-09-08 13:58:00,
2013-09-08 09:59:00,70.7,63.9,30.21,West,270,2.0,4.0,79,0.00,,,0.22,meteohub,2013-09-08 13:59:00,
2013-09-08 10:01:00,70.7,63.9,30.21,SE,135,2.0,4.0,79,0.00,,,0.22,meteohub,2013-09-08 14:01:00,
2013-09-08 10:02:00,70.7,63.9,30.21,NW,315,4.0,4.0,79,0.00,,,0.22,meteohub,2013-09-08 14:02:00,
2013-09-08 10:04:00,70.7,63.5,30.21,West,270,3.0,4.0,78,0.00,,,0.22,meteohub,2013-09-08 14:04:00,
2013-09-08 10:05:00,70.7,63.5,30.21,NW,315,4.0,4.0,78,0.00,,,0.22,meteohub,2013-09-08 14:05:00,
2013-09-08 10:06:00,70.9,64.0,30.21,WSW,248,2.0,5.0,79,0.00,,,0.22,meteohub,2013-09-08 14:06:00,
2013-09-08 10:07:00,71.1,63.9,30.21,West,270,5.0,5.0,78,0.00,,,0.22,meteohub,2013-09-08 14:07:00,
2013-09-08 10:09:00,71.4,64.6,30.21,WSW,248,2.0,5.0,79,0.00,,,0.22,meteohub,2013-09-08 14:09:00,
2013-09-08 10:10:00,71.6,64.0,30.21,South,180,4.0,5.0,77,0.00,,,0.22,meteohub,2013-09-08 14:10:00,
2013-09-08 10:11:00,71.8,63.9,30.22,NW,315,4.0,5.0,76,0.00,,,0.22,meteohub,2013-09-08 14:11:00,
2013-09-08 10:12:00,71.6,63.7,30.22,WNW,293,4.0,5.0,76,0.00,,,0.22,meteohub,2013-09-08 14:12:00,
2013-09-08 10:14:00,71.4,63.9,30.22,West,270,2.0,5.0,77,0.00,,,0.22,meteohub,2013-09-08 14:14:00,
2013-09-08 10:15:00,71.4,63.9,30.21,WSW,248,3.0,7.0,77,0.00,,,0.22,meteohub,2013-09-08 14:15:00,
2013-09-08 10:18:00,71.2,64.4,30.22,North,0,3.0,7.0,79,0.00,,,0.22,meteohub,2013-09-08 14:18:00,
2013-09-08 10:19:00,71.2,64.0,30.22,East,90,2.0,7.0,78,0.00,,,0.22,meteohub,2013-09-08 14:19:00,
2013-09-08 10:20:00,71.2,64.0,30.22,West,270,2.0,7.0,78,0.00,,,0.22,meteohub,2013-09-08 14:20:00,
2013-09-08 10:22:00,71.2,64.0,30.21,WSW,248,2.0,7.0,78,0.00,,,0.22,meteohub,2013-09-08 14:22:00,
2013-09-08 10:23:00,71.2,64.0,30.21,North,0,2.0,7.0,78,0.00,,,0.22,meteohub,2013-09-08 14:23:00,
2013-09-08 10:24:00,71.2,64.4,30.22,West,270,2.0,7.0,79,0.00,,,0.22,meteohub,2013-09-08 14:24:00,
2013-09-08 10:25:00,71.4,64.9,30.21,West,270,6.0,7.0,80,0.00,,,0.22,meteohub,2013-09-08 14:25:00,
2013-09-08 10:27:00,71.2,64.0,30.21,North,0,3.0,7.0,78,0.00,,,0.22,meteohub,2013-09-08 14:27:00,
2013-09-08 10:28:00,71.2,64.0,30.21,NW,315,4.0,7.0,78,0.00,,,0.22,meteohub,2013-09-08 14:28:00,
2013-09-08 10:29:00,71.6,64.8,30.22,West,270,2.0,7.0,79,0.00,,,0.22,meteohub,2013-09-08 14:29:00,
2013-09-08 10:30:00,71.6,64.8,30.22,West,270,2.0,7.0,79,0.00,,,0.22,meteohub,2013-09-08 14:30:00,
2013-09-08 10:31:00,71.6,64.8,30.21,West,270,2.0,6.0,79,0.00,,,0.22,meteohub,2013-09-08 14:31:00,
2013-09-08 10:32:00,72.1,64.9,30.22,North,0,4.0,6.0,78,0.00,,,0.22,meteohub,2013-09-08 14:32:00,
2013-09-08 10:35:00,72.1,64.9,30.22,North,0,3.0,6.0,78,0.00,,,0.22,meteohub,2013-09-08 14:35:00,
2013-09-08 10:37:00,72.5,66.0,30.22,NW,315,2.0,6.0,80,0.00,,,0.22,meteohub,2013-09-08 14:37:00,
2013-09-08 10:38:00,73.0,64.9,30.22,NW,315,4.0,6.0,76,0.00,,,0.22,meteohub,2013-09-08 14:38:00,
2013-09-08 10:40:00,72.9,64.8,30.22,WSW,248,2.0,6.0,76,0.00,,,0.22,meteohub,2013-09-08 14:40:00,
2013-09-08 10:41:00,72.7,64.8,30.22,WSW,248,5.0,5.0,76,0.00,,,0.22,meteohub,2013-09-08 14:41:00,
2013-09-08 10:42:00,72.5,64.0,30.22,NW,315,3.0,5.0,75,0.00,,,0.22,meteohub,2013-09-08 14:42:00,
2013-09-08 10:43:00,72.3,63.9,30.22,NE,45,4.0,5.0,75,0.00,,,0.22,meteohub,2013-09-08 14:43:00,
2013-09-08 10:44:00,72.1,63.9,30.22,NW,315,5.0,5.0,75,0.00,,,0.22,meteohub,2013-09-08 14:44:00,
2013-09-08 10:46:00,71.6,64.0,30.22,NW,315,3.0,6.0,77,0.00,,,0.22,meteohub,2013-09-08 14:46:00,
2013-09-08 10:47:00,71.4,64.2,30.22,South,180,2.0,6.0,78,0.00,,,0.22,meteohub,2013-09-08 14:47:00,
2013-09-08 10:49:00,71.2,64.4,30.22,West,270,2.0,6.0,79,0.00,,,0.22,meteohub,2013-09-08 14:49:00,
2013-09-08 10:50:00,70.9,63.7,30.22,NW,315,3.0,6.0,78,0.00,,,0.22,meteohub,2013-09-08 14:50:00,
2013-09-08 10:51:00,70.9,63.3,30.22,North,0,4.0,6.0,77,0.00,,,0.22,meteohub,2013-09-08 14:51:00,
2013-09-08 10:52:00,70.5,63.3,30.22,WSW,248,3.0,6.0,78,0.00,,,0.22,meteohub,2013-09-08 14:52:00,
2013-09-08 10:53:00,70.3,63.1,30.22,NW,315,2.0,6.0,78,0.00,,,0.22,meteohub,2013-09-08 14:53:00,
2013-09-08 10:55:00,69.8,63.3,30.22,NW,315,3.0,6.0,80,0.00,,,0.22,meteohub,2013-09-08 14:55:00,
2013-09-08 10:56:00,69.8,63.3,30.22,West,270,2.0,6.0,80,0.00,,,0.22,meteohub,2013-09-08 14:56:00,
2013-09-08 10:57:00,69.6,63.1,30.22,NW,315,3.0,6.0,80,0.00,,,0.22,meteohub,2013-09-08 14:57:00,
2013-09-08 10:58:00,69.4,63.0,30.22,South,180,2.0,6.0,80,0.00,,,0.22,meteohub,2013-09-08 14:58:00,
2013-09-08 10:59:00,69.4,63.3,30.22,North,0,4.0,6.0,81,0.00,,,0.22,meteohub,2013-09-08 14:59:00,
2013-09-08 11:01:00,69.3,63.1,30.22,WSW,248,2.0,5.0,81,0.00,,,0.22,meteohub,2013-09-08 15:01:00,
2013-09-08 11:02:00,69.3,63.9,30.22,West,270,2.0,5.0,83,0.00,,,0.22,meteohub,2013-09-08 15:02:00,
2013-09-08 11:03:00,69.1,63.3,30.22,NW,315,2.0,5.0,82,0.00,,,0.22,meteohub,2013-09-08 15:03:00,
2013-09-08 11:06:00,69.1,63.7,30.22,North,0,3.0,4.0,83,0.00,,,0.22,meteohub,2013-09-08 15:06:00,
2013-09-08 11:07:00,69.1,63.7,30.22,NW,315,1.0,4.0,83,0.00,,,0.22,meteohub,2013-09-08 15:07:00,
2013-09-08 11:11:00,68.7,64.0,30.22,NW,315,2.0,4.0,85,0.00,,,0.22,meteohub,2013-09-08 15:11:00,
2013-09-08 11:12:00,68.7,64.0,30.22,NW,315,2.0,4.0,85,0.00,,,0.22,meteohub,2013-09-08 15:12:00,
2013-09-08 11:13:00,68.9,64.2,30.22,NW,315,2.0,4.0,85,0.00,,,0.22,meteohub,2013-09-08 15:13:00,
2013-09-08 11:16:00,68.9,64.6,30.22,North,0,2.0,3.0,86,0.00,,,0.22,meteohub,2013-09-08 15:16:00,
2013-09-08 11:17:00,69.3,64.6,30.22,South,180,1.0,3.0,85,0.00,,,0.22,meteohub,2013-09-08 15:17:00,
2013-09-08 11:18:00,69.3,64.6,30.22,South,180,1.0,3.0,85,0.00,,,0.22,meteohub,2013-09-08 15:18:00,
2013-09-08 11:19:00,69.4,64.8,30.22,WSW,248,2.0,3.0,85,0.00,,,0.22,meteohub,2013-09-08 15:19:00,
2013-09-08 11:20:00,69.4,64.4,30.22,North,0,2.0,3.0,84,0.00,,,0.22,meteohub,2013-09-08 15:20:00,
2013-09-08 11:23:00,69.6,64.9,30.22,NW,315,1.0,3.0,85,0.00,,,0.22,meteohub,2013-09-08 15:23:00,
2013-09-08 11:24:00,69.6,65.3,30.22,NW,315,1.0,3.0,86,0.00,,,0.22,meteohub,2013-09-08 15:24:00,
2013-09-08 11:28:00,70.0,64.6,30.21,WSW,248,1.0,2.0,83,0.00,,,0.22,meteohub,2013-09-08 15:28:00,
2013-09-08 11:29:00,70.2,64.8,30.22,WSW,248,2.0,2.0,83,0.00,,,0.22,meteohub,2013-09-08 15:29:00,
2013-09-08 11:30:00,70.2,64.8,30.22,WSW,248,2.0,2.0,83,0.00,,,0.22,meteohub,2013-09-08 15:30:00,
2013-09-08 11:32:00,70.2,64.8,30.22,NW,315,2.0,2.0,83,0.00,,,0.22,meteohub,2013-09-08 15:32:00,
2013-09-08 11:33:00,70.2,64.8,30.22,WSW,248,0.0,2.0,83,0.00,,,0.22,meteohub,2013-09-08 15:33:00,
2013-09-08 11:34:00,70.3,64.9,30.22,NW,315,2.0,2.0,83,0.00,,,0.22,meteohub,2013-09-08 15:34:00,
2013-09-08 11:35:00,70.3,64.9,30.22,West,270,2.0,2.0,83,0.00,,,0.22,meteohub,2013-09-08 15:35:00,
2013-09-08 11:36:00,70.5,64.4,30.22,North,0,4.0,4.0,81,0.00,,,0.22,meteohub,2013-09-08 15:36:00,
2013-09-08 11:39:00,70.5,64.0,30.22,NW,315,4.0,4.0,80,0.00,,,0.22,meteohub,2013-09-08 15:39:00,
2013-09-08 11:40:00,70.7,64.2,30.22,NE,45,2.0,4.0,80,0.00,,,0.22,meteohub,2013-09-08 15:40:00,
2013-09-08 11:41:00,70.7,64.2,30.22,NE,45,2.0,4.0,80,0.00,,,0.22,meteohub,2013-09-08 15:41:00,
2013-09-08 11:42:00,71.1,64.6,30.22,NW,315,1.0,4.0,80,0.00,,,0.22,meteohub,2013-09-08 15:42:00,
2013-09-08 11:44:00,71.4,64.9,30.22,South,180,3.0,4.0,80,0.00,,,0.22,meteohub,2013-09-08 15:44:00,
2013-09-08 11:45:00,71.4,64.9,30.22,South,180,3.0,4.0,80,0.00,,,0.22,meteohub,2013-09-08 15:45:00,
2013-09-08 11:47:00,71.1,64.6,30.21,NW,315,4.0,4.0,80,0.00,,,0.22,meteohub,2013-09-08 15:47:00,
2013-09-08 11:48:00,70.9,64.4,30.22,West,270,2.0,4.0,80,0.00,,,0.22,meteohub,2013-09-08 15:48:00,
2013-09-08 11:50:00,70.9,64.8,30.22,West,270,1.0,4.0,81,0.00,,,0.22,meteohub,2013-09-08 15:50:00,
2013-09-08 11:51:00,70.9,64.8,30.22,WSW,248,1.0,4.0,81,0.00,,,0.22,meteohub,2013-09-08 15:51:00,
2013-09-08 11:52:00,70.9,64.8,30.22,North,0,3.0,4.0,81,0.00,,,0.22,meteohub,2013-09-08 15:52:00,
2013-09-08 11:53:00,70.9,65.1,30.22,West,270,2.0,4.0,82,0.00,,,0.22,meteohub,2013-09-08 15:53:00,
2013-09-08 11:55:00,70.9,64.4,30.22,NW,315,2.0,4.0,80,0.00,,,0.22,meteohub,2013-09-08 15:55:00,
2013-09-08 11:58:00,70.7,64.2,30.22,WSW,248,3.0,4.0,80,0.00,,,0.22,meteohub,2013-09-08 15:58:00,
2013-09-08 11:59:00,70.7,63.9,30.22,NE,45,2.0,4.0,79,0.00,,,0.22,meteohub,2013-09-08 15:59:00,
2013-09-08 12:00:00,70.7,64.2,30.22,SE,135,2.0,4.0,80,0.00,,,0.22,meteohub,2013-09-08 16:00:00,
2013-09-08 12:01:00,70.7,64.2,30.22,SE,135,2.0,4.0,80,0.00,,,0.22,meteohub,2013-09-08 16:01:00,
2013-09-08 12:02:00,70.5,64.4,30.22,North,0,4.0,4.0,81,0.00,,,0.22,meteohub,2013-09-08 16:02:00,
2013-09-08 12:03:00,70.5,64.4,30.22,West,270,2.0,4.0,81,0.00,,,0.22,meteohub,2013-09-08 16:03:00,
2013-09-08 12:04:00,70.5,64.4,30.22,North,0,2.0,4.0,81,0.00,,,0.22,meteohub,2013-09-08 16:04:00,
2013-09-08 12:05:00,70.3,63.9,30.22,West,270,3.0,4.0,80,0.00,,,0.22,meteohub,2013-09-08 16:05:00,
2013-09-08 12:07:00,70.3,64.2,30.22,North,0,2.0,4.0,81,0.00,,,0.22,meteohub,2013-09-08 16:07:00,
2013-09-08 12:09:00,70.2,64.4,30.22,North,0,2.0,4.0,82,0.00,,,0.22,meteohub,2013-09-08 16:09:00,
2013-09-08 12:11:00,70.3,64.6,30.22,NW,315,3.0,4.0,82,0.00,,,0.22,meteohub,2013-09-08 16:11:00,
2013-09-08 12:13:00,70.2,64.4,30.22,SE,135,3.0,4.0,82,0.00,,,0.22,meteohub,2013-09-08 16:13:00,
2013-09-08 12:14:00,70.3,64.6,30.22,North,0,2.0,4.0,82,0.00,,,0.22,meteohub,2013-09-08 16:14:00,
2013-09-08 12:16:00,70.3,64.6,30.22,North,0,2.0,4.0,82,0.00,,,0.22,meteohub,2013-09-08 16:16:00,
2013-09-08 12:18:00,70.3,64.2,30.22,North,0,0.0,4.0,81,0.00,,,0.22,meteohub,2013-09-08 16:18:00,
2013-09-08 12:19:00,70.5,64.8,30.22,SSE,158,2.0,4.0,82,0.00,,,0.22,meteohub,2013-09-08 16:19:00,
2013-09-08 12:21:00,70.7,64.6,30.22,North,0,2.0,3.0,81,0.00,,,0.22,meteohub,2013-09-08 16:21:00,
2013-09-08 12:23:00,70.7,64.6,30.22,East,90,2.0,3.0,81,0.00,,,0.22,meteohub,2013-09-08 16:23:00,
2013-09-08 12:24:00,70.7,64.6,30.22,West,270,2.0,3.0,81,0.00,,,0.22,meteohub,2013-09-08 16:24:00,
2013-09-08 12:25:00,70.7,64.2,30.22,North,0,5.0,5.0,80,0.00,,,0.22,meteohub,2013-09-08 16:25:00,
2013-09-08 12:26:00,70.5,64.4,30.22,WSW,248,2.0,4.0,81,0.00,,,0.22,meteohub,2013-09-08 16:26:00,
2013-09-08 12:28:00,70.3,64.2,30.22,NW,315,4.0,4.0,81,0.00,,,0.22,meteohub,2013-09-08 16:28:00,
2013-09-08 12:29:00,70.3,64.6,30.22,North,0,2.0,4.0,82,0.00,,,0.22,meteohub,2013-09-08 16:29:00,
2013-09-08 12:30:00,70.3,64.6,30.22,North,0,2.0,4.0,82,0.00,,,0.22,meteohub,2013-09-08 16:30:00,
2013-09-08 12:32:00,70.5,64.4,30.22,NW,315,5.0,5.0,81,0.00,,,0.22,meteohub,2013-09-08 16:32:00,
2013-09-08 12:33:00,70.5,64.4,30.22,NE,45,3.0,5.0,81,0.00,,,0.22,meteohub,2013-09-08 16:33:00,
2013-09-08 12:34:00,70.5,64.8,30.22,NE,45,3.0,5.0,82,0.00,,,0.22,meteohub,2013-09-08 16:34:00,
2013-09-08 12:36:00,70.7,65.3,30.22,NW,315,3.0,6.0,83,0.00,,,0.22,meteohub,2013-09-08 16:36:00,
2013-09-08 12:37:00,70.7,64.6,30.22,West,270,4.0,6.0,81,0.00,,,0.22,meteohub,2013-09-08 16:37:00,
2013-09-08 12:38:00,70.5,64.8,30.22,NW,315,2.0,6.0,82,0.00,,,0.22,meteohub,2013-09-08 16:38:00,
2013-09-08 12:39:00,70.7,64.9,30.22,North,0,2.0,6.0,82,0.00,,,0.22,meteohub,2013-09-08 16:39:00,
2013-09-08 12:40:00,70.7,64.6,30.22,South,180,2.0,6.0,81,0.00,,,0.22,meteohub,2013-09-08 16:40:00,
2013-09-08 12:41:00,70.9,64.8,30.22,North,0,3.0,6.0,81,0.00,,,0.22,meteohub,2013-09-08 16:41:00,
2013-09-08 12:42:00,71.1,64.9,30.22,East,90,2.0,6.0,81,0.00,,,0.22,meteohub,2013-09-08 16:42:00,
2013-09-08 12:44:00,71.6,65.8,30.22,South,180,1.0,6.0,82,0.00,,,0.22,meteohub,2013-09-08 16:44:00,
2013-09-08 12:45:00,71.6,65.8,30.22,South,180,1.0,6.0,82,0.00,,,0.22,meteohub,2013-09-08 16:45:00,
2013-09-08 12:46:00,72.0,65.5,30.22,West,270,3.0,5.0,80,0.00,,,0.22,meteohub,2013-09-08 16:46:00,
2013-09-08 12:47:00,72.1,65.7,30.22,WNW,293,5.0,5.0,80,0.00,,,0.22,meteohub,2013-09-08 16:47:00,
2013-09-08 12:48:00,72.1,65.3,30.22,North,0,4.0,5.0,79,0.00,,,0.22,meteohub,2013-09-08 16:48:00,
2013-09-08 12:50:00,72.0,65.1,30.22,West,270,3.0,5.0,79,0.00,,,0.22,meteohub,2013-09-08 16:50:00,
2013-09-08 12:51:00,71.8,64.9,30.22,North,0,4.0,5.0,79,0.00,,,0.22,meteohub,2013-09-08 16:51:00,
2013-09-08 12:52:00,71.6,65.1,30.22,NW,315,4.0,5.0,80,0.00,,,0.22,meteohub,2013-09-08 16:52:00,
2013-09-08 12:53:00,71.6,65.1,30.22,NW,315,4.0,5.0,80,0.00,,,0.22,meteohub,2013-09-08 16:53:00,
2013-09-08 12:54:00,71.6,64.8,30.22,West,270,5.0,5.0,79,0.00,,,0.22,meteohub,2013-09-08 16:54:00,
2013-09-08 12:55:00,71.6,65.1,30.22,NW,315,2.0,5.0,80,0.00,,,0.22,meteohub,2013-09-08 16:55:00,
2013-09-08 12:57:00,71.8,64.9,30.22,North,0,4.0,5.0,79,0.00,,,0.22,meteohub,2013-09-08 16:57:00,
2013-09-08 12:58:00,71.8,64.9,30.22,WSW,248,5.0,5.0,79,0.00,,,0.22,meteohub,2013-09-08 16:58:00,
2013-09-08 12:59:00,71.8,65.3,30.22,North,0,3.0,5.0,80,0.00,,,0.22,meteohub,2013-09-08 16:59:00,
2013-09-08 13:00:00,71.8,65.7,30.22,South,180,2.0,5.0,81,0.00,,,0.22,meteohub,2013-09-08 17:00:00,
2013-09-08 13:02:00,72.5,65.7,30.22,NW,315,3.0,5.0,79,0.00,,,0.22,meteohub,2013-09-08 17:02:00,
2013-09-08 13:03:00,72.7,65.8,30.22,NW,315,4.0,5.0,79,0.00,,,0.22,meteohub,2013-09-08 17:03:00,
2013-09-08 13:04:00,72.7,65.5,30.22,West,270,4.0,5.0,78,0.00,,,0.22,meteohub,2013-09-08 17:04:00,
2013-09-08 13:06:00,72.5,65.3,30.22,NW,315,5.0,7.0,78,0.00,,,0.22,meteohub,2013-09-08 17:06:00,
2013-09-08 13:07:00,72.3,65.5,30.22,NW,315,4.0,7.0,79,0.00,,,0.22,meteohub,2013-09-08 17:07:00,
2013-09-08 13:08:00,72.1,65.7,30.22,NE,45,3.0,7.0,80,0.00,,,0.22,meteohub,2013-09-08 17:08:00,
2013-09-08 13:09:00,72.1,65.7,30.22,West,270,3.0,7.0,80,0.00,,,0.22,meteohub,2013-09-08 17:09:00,
2013-09-08 13:10:00,72.1,65.7,30.22,West,270,3.0,7.0,80,0.00,,,0.22,meteohub,2013-09-08 17:10:00,
2013-09-08 13:12:00,71.8,64.9,30.22,South,180,2.0,7.0,79,0.00,,,0.22,meteohub,2013-09-08 17:12:00,
2013-09-08 13:13:00,71.6,65.1,30.23,NW,315,1.0,7.0,80,0.00,,,0.22,meteohub,2013-09-08 17:13:00,
2013-09-08 13:14:00,71.8,65.7,30.22,North,0,7.0,7.0,81,0.00,,,0.22,meteohub,2013-09-08 17:14:00,
2013-09-08 13:15:00,71.8,65.7,30.22,NW,315,4.0,7.0,81,0.00,,,0.22,meteohub,2013-09-08 17:15:00,
2013-09-08 13:16:00,72.1,66.4,30.22,NW,315,2.0,7.0,82,0.00,,,0.22,meteohub,2013-09-08 17:16:00,
2013-09-08 13:17:00,72.1,66.4,30.22,NW,315,2.0,7.0,82,0.00,,,0.22,meteohub,2013-09-08 17:17:00,
2013-09-08 13:18:00,72.3,65.8,30.22,WSW,248,5.0,7.0,80,0.00,,,0.22,meteohub,2013-09-08 17:18:00,
2013-09-08 13:20:00,72.3,65.8,30.22,NW,315,4.0,7.0,80,0.00,,,0.22,meteohub,2013-09-08 17:20:00,
2013-09-08 13:22:00,72.1,65.7,30.22,North,0,4.0,7.0,80,0.00,,,0.22,meteohub,2013-09-08 17:22:00,
2013-09-08 13:24:00,72.0,65.5,30.22,NE,45,2.0,7.0,80,0.00,,,0.22,meteohub,2013-09-08 17:24:00,
2013-09-08 13:25:00,72.0,65.8,30.22,NE,45,4.0,7.0,81,0.00,,,0.22,meteohub,2013-09-08 17:25:00,
2013-09-08 13:26:00,72.1,66.0,30.22,North,0,5.0,7.0,81,0.00,,,0.22,meteohub,2013-09-08 17:26:00,
2013-09-08 13:27:00,72.1,66.0,30.22,NW,315,5.0,7.0,81,0.00,,,0.22,meteohub,2013-09-08 17:27:00,
2013-09-08 13:29:00,72.1,65.7,30.22,North,0,6.0,7.0,80,0.00,,,0.22,meteohub,2013-09-08 17:29:00,
2013-09-08 13:30:00,72.3,65.8,30.22,NW,315,5.0,6.0,80,0.00,,,0.22,meteohub,2013-09-08 17:30:00,
2013-09-08 13:31:00,72.3,65.8,30.23,NW,315,5.0,6.0,80,0.00,,,0.22,meteohub,2013-09-08 17:31:00,
2013-09-08 13:32:00,72.1,65.7,30.23,WSW,248,5.0,6.0,80,0.00,,,0.22,meteohub,2013-09-08 17:32:00,
2013-09-08 13:33:00,72.1,65.7,30.23,WSW,248,4.0,6.0,80,0.00,,,0.22,meteohub,2013-09-08 17:33:00,
2013-09-08 13:35:00,72.0,65.5,30.23,North,0,6.0,6.0,80,0.00,,,0.22,meteohub,2013-09-08 17:35:00,
2013-09-08 13:37:00,71.6,65.5,30.23,NE,45,5.0,6.0,81,0.00,,,0.22,meteohub,2013-09-08 17:37:00,
2013-09-08 13:38:00,71.6,65.1,30.23,SE,135,5.0,6.0,80,0.00,,,0.22,meteohub,2013-09-08 17:38:00,
2013-09-08 13:39:00,71.2,64.8,30.23,West,270,5.0,6.0,80,0.00,,,0.22,meteohub,2013-09-08 17:39:00,
2013-09-08 13:40:00,70.9,64.8,30.23,West,270,5.0,6.0,81,0.00,,,0.22,meteohub,2013-09-08 17:40:00,
2013-09-08 13:43:00,70.5,65.1,30.23,East,90,2.0,6.0,83,0.00,,,0.22,meteohub,2013-09-08 17:43:00,
2013-09-08 13:45:00,70.5,65.1,30.23,East,90,3.0,6.0,83,0.00,,,0.22,meteohub,2013-09-08 17:45:00,
2013-09-08 13:46:00,70.5,65.1,30.23,East,90,3.0,6.0,83,0.00,,,0.22,meteohub,2013-09-08 17:46:00,
2013-09-08 13:47:00,70.3,65.3,30.24,SE,135,2.0,6.0,84,0.00,,,0.22,meteohub,2013-09-08 17:47:00,
2013-09-08 13:50:00,70.3,65.3,30.24,South,180,2.0,6.0,84,0.00,,,0.22,meteohub,2013-09-08 17:50:00,
2013-09-08 13:51:00,70.5,65.8,30.24,West,270,1.0,6.0,85,0.00,,,0.22,meteohub,2013-09-08 17:51:00,
2013-09-08 13:52:00,70.7,65.7,30.24,WSW,248,3.0,6.0,84,0.00,,,0.22,meteohub,2013-09-08 17:52:00,
2013-09-08 13:56:00,71.2,65.8,30.23,West,270,2.0,5.0,83,0.00,,,0.22,meteohub,2013-09-08 17:56:00,
2013-09-08 13:57:00,71.8,66.0,30.23,NE,45,4.0,5.0,82,0.00,,,0.22,meteohub,2013-09-08 17:57:00,
2013-09-08 13:58:00,71.8,66.0,30.23,NE,45,4.0,5.0,82,0.00,,,0.22,meteohub,2013-09-08 17:58:00,
2013-09-08 14:01:00,72.7,65.8,30.23,East,90,3.0,5.0,79,0.00,,,0.22,meteohub,2013-09-08 18:01:00,
2013-09-08 14:02:00,73.2,66.0,30.23,South,180,5.0,5.0,78,0.00,,,0.22,meteohub,2013-09-08 18:02:00,
2013-09-08 14:03:00,73.2,66.0,30.23,South,180,5.0,5.0,78,0.00,,,0.22,meteohub,2013-09-08 18:03:00,
2013-09-08 14:05:00,73.2,66.7,30.23,North,0,3.0,5.0,80,0.00,,,0.22,meteohub,2013-09-08 18:05:00,
2013-09-08 14:06:00,73.6,66.4,30.23,WNW,293,2.0,5.0,78,0.00,,,0.22,meteohub,2013-09-08 18:06:00,
2013-09-08 14:07:00,73.8,66.0,30.23,WSW,248,5.0,5.0,77,0.00,,,0.22,meteohub,2013-09-08 18:07:00,
2013-09-08 14:08:00,73.8,66.0,30.23,East,90,2.0,5.0,77,0.00,,,0.22,meteohub,2013-09-08 18:08:00,
2013-09-08 14:10:00,73.8,66.4,30.23,West,270,2.0,5.0,78,0.00,,,0.22,meteohub,2013-09-08 18:10:00,
2013-09-08 14:12:00,73.8,66.0,30.23,North,0,4.0,5.0,77,0.00,,,0.22,meteohub,2013-09-08 18:12:00,
2013-09-08 14:14:00,73.6,65.1,30.23,NE,45,2.0,5.0,75,0.00,,,0.22,meteohub,2013-09-08 18:14:00,
2013-09-08 14:15:00,73.6,65.5,30.23,NE,45,2.0,5.0,76,0.00,,,0.22,meteohub,2013-09-08 18:15:00,
2013-09-08 14:17:00,73.4,65.3,30.23,North,0,6.0,6.0,76,0.00,,,0.22,meteohub,2013-09-08 18:17:00,
2013-09-08 14:18:00,73.2,65.1,30.23,East,90,4.0,5.0,76,0.00,,,0.22,meteohub,2013-09-08 18:18:00,
2013-09-08 14:19:00,73.2,65.1,30.23,NE,45,3.0,5.0,76,0.00,,,0.22,meteohub,2013-09-08 18:19:00,
2013-09-08 14:20:00,73.2,65.7,30.22,WSW,248,5.0,6.0,77,0.00,,,0.22,meteohub,2013-09-08 18:20:00,
2013-09-08 14:23:00,73.4,65.7,30.22,West,270,4.0,6.0,77,0.00,,,0.22,meteohub,2013-09-08 18:23:00,
2013-09-08 14:24:00,73.6,65.5,30.23,East,90,8.0,8.0,76,0.00,,,0.22,meteohub,2013-09-08 18:24:00,
2013-09-08 14:25:00,74.3,65.8,30.23,NE,45,5.0,8.0,75,0.00,,,0.22,meteohub,2013-09-08 18:25:00,
2013-09-08 14:28:00,75.6,67.5,30.23,NW,315,2.0,8.0,76,0.00,,,0.22,meteohub,2013-09-08 18:28:00,
2013-09-08 14:30:00,76.3,66.6,30.23,West,270,7.0,8.0,72,0.00,,,0.22,meteohub,2013-09-08 18:30:00,
2013-09-08 14:31:00,76.3,66.6,30.22,West,270,7.0,8.0,72,0.00,,,0.22,meteohub,2013-09-08 18:31:00,
2013-09-08 14:32:00,76.8,66.7,30.22,SE,135,4.0,8.0,71,0.00,,,0.22,meteohub,2013-09-08 18:32:00,
2013-09-08 14:34:00,76.8,67.1,30.22,East,90,4.0,8.0,72,0.00,,,0.22,meteohub,2013-09-08 18:34:00,
2013-09-08 14:36:00,76.8,66.7,30.22,West,270,5.0,8.0,71,0.00,,,0.22,meteohub,2013-09-08 18:36:00,
2013-09-08 14:37:00,76.6,66.9,30.22,WSW,248,4.0,8.0,72,0.00,,,0.22,meteohub,2013-09-08 18:37:00,
2013-09-08 14:39:00,76.5,66.0,30.22,East,90,6.0,8.0,70,0.00,,,0.22,meteohub,2013-09-08 18:39:00,
2013-09-08 14:40:00,76.3,65.8,30.22,NW,315,4.0,7.0,70,0.00,,,0.22,meteohub,2013-09-08 18:40:00,
2013-09-08 14:41:00,76.3,66.2,30.22,NW,315,5.0,7.0,71,0.00,,,0.22,meteohub,2013-09-08 18:41:00,
2013-09-08 14:42:00,76.5,66.4,30.22,NW,315,4.0,7.0,71,0.00,,,0.22,meteohub,2013-09-08 18:42:00,
2013-09-08 14:44:00,76.6,66.6,30.22,NW,315,3.0,7.0,71,0.00,,,0.22,meteohub,2013-09-08 18:44:00,
2013-09-08 14:45:00,77.0,67.3,30.22,WSW,248,2.0,7.0,72,0.00,,,0.22,meteohub,2013-09-08 18:45:00,
2013-09-08 14:46:00,77.4,66.7,30.22,WSW,248,5.0,7.0,70,0.00,,,0.22,meteohub,2013-09-08 18:46:00,
2013-09-08 14:47:00,77.5,67.5,30.22,NW,315,4.0,7.0,71,0.00,,,0.22,meteohub,2013-09-08 18:47:00,
2013-09-08 14:48:00,77.5,67.5,30.22,WSW,248,2.0,7.0,71,0.00,,,0.22,meteohub,2013-09-08 18:48:00,
2013-09-08 14:49:00,77.9,67.8,30.22,NE,45,3.0,7.0,71,0.00,,,0.22,meteohub,2013-09-08 18:49:00,
2013-09-08 14:50:00,77.9,67.8,30.22,NW,315,4.0,6.0,71,0.00,,,0.22,meteohub,2013-09-08 18:50:00,
2013-09-08 14:51:00,77.9,66.9,30.22,NE,45,5.0,6.0,69,0.00,,,0.22,meteohub,2013-09-08 18:51:00,
2013-09-08 14:52:00,77.9,66.9,30.22,North,0,4.0,6.0,69,0.00,,,0.22,meteohub,2013-09-08 18:52:00,
2013-09-08 14:53:00,78.1,66.7,30.22,NW,315,6.0,6.0,68,0.00,,,0.22,meteohub,2013-09-08 18:53:00,
2013-09-08 14:56:00,78.3,68.0,30.22,NW,315,2.0,6.0,71,0.00,,,0.22,meteohub,2013-09-08 18:56:00,
2013-09-08 14:57:00,78.1,66.7,30.22,North,0,4.0,6.0,68,0.00,,,0.22,meteohub,2013-09-08 18:57:00,
2013-09-08 14:58:00,77.9,66.9,30.22,North,0,4.0,6.0,69,0.00,,,0.22,meteohub,2013-09-08 18:58:00,
2013-09-08 15:01:00,77.7,66.7,30.22,East,90,4.0,6.0,69,0.00,,,0.22,meteohub,2013-09-08 19:01:00,
2013-09-08 15:02:00,77.4,67.3,30.22,North,0,2.0,6.0,71,0.00,,,0.22,meteohub,2013-09-08 19:02:00,
2013-09-08 15:03:00,77.4,66.7,30.22,NW,315,2.0,6.0,70,0.00,,,0.22,meteohub,2013-09-08 19:03:00,
2013-09-08 15:04:00,77.5,67.5,30.22,West,270,2.0,6.0,71,0.00,,,0.22,meteohub,2013-09-08 19:04:00,
2013-09-08 15:06:00,78.3,67.6,30.22,North,0,2.0,6.0,70,0.00,,,0.22,meteohub,2013-09-08 19:06:00,
2013-09-08 15:08:00,78.3,66.4,30.22,East,90,7.0,7.0,67,0.00,,,0.22,meteohub,2013-09-08 19:08:00,
2013-09-08 15:09:00,78.3,66.7,30.22,NW,315,4.0,6.0,68,0.00,,,0.22,meteohub,2013-09-08 19:09:00,
2013-09-08 15:12:00,79.0,67.1,30.21,West,270,5.0,8.0,67,0.00,,,0.22,meteohub,2013-09-08 19:12:00,
2013-09-08 15:13:00,78.6,67.1,30.22,North,0,7.0,8.0,68,0.00,,,0.22,meteohub,2013-09-08 19:13:00,
2013-09-08 15:15:00,77.9,67.3,30.22,WSW,248,4.0,8.0,70,0.00,,,0.22,meteohub,2013-09-08 19:15:00,
2013-09-08 15:17:00,76.6,65.3,30.22,North,0,8.0,8.0,68,0.00,,,0.22,meteohub,2013-09-08 19:17:00,
2013-09-08 15:18:00,76.1,66.0,30.22,North,0,7.0,8.0,71,0.00,,,0.22,meteohub,2013-09-08 19:18:00,
2013-09-08 15:20:00,75.2,66.0,30.22,South,180,7.0,8.0,73,0.00,,,0.22,meteohub,2013-09-08 19:20:00,
2013-09-08 15:21:00,74.7,65.8,30.22,NW,315,4.0,8.0,74,0.00,,,0.22,meteohub,2013-09-08 19:21:00,
2013-09-08 15:22:00,74.5,65.7,30.22,NW,315,2.0,8.0,74,0.00,,,0.22,meteohub,2013-09-08 19:22:00,
2013-09-08 15:24:00,74.1,65.7,30.22,NW,315,4.0,8.0,75,0.00,,,0.22,meteohub,2013-09-08 19:24:00,
2013-09-08 15:25:00,73.8,66.0,30.22,West,270,2.0,8.0,77,0.00,,,0.22,meteohub,2013-09-08 19:25:00,
2013-09-08 15:26:00,73.6,65.8,30.22,NW,315,1.0,8.0,77,0.00,,,0.22,meteohub,2013-09-08 19:26:00,
2013-09-08 15:28:00,73.2,66.4,30.22,NW,315,2.0,8.0,79,0.00,,,0.22,meteohub,2013-09-08 19:28:00,
2013-09-08 15:31:00,73.0,64.9,30.22,NW,315,4.0,8.0,76,0.00,,,0.22,meteohub,2013-09-08 19:31:00,
2013-09-08 15:32:00,73.2,65.7,30.22,East,90,6.0,8.0,77,0.00,,,0.22,meteohub,2013-09-08 19:32:00,
2013-09-08 15:33:00,73.4,66.2,30.22,SE,135,2.0,8.0,78,0.00,,,0.22,meteohub,2013-09-08 19:33:00,
2013-09-08 15:34:00,74.3,66.6,30.22,WSW,248,4.0,8.0,77,0.00,,,0.22,meteohub,2013-09-08 19:34:00,
2013-09-08 15:36:00,75.7,67.3,30.22,North,0,2.0,7.0,75,0.00,,,0.22,meteohub,2013-09-08 19:36:00,
2013-09-08 15:38:00,76.1,67.3,30.22,NW,315,4.0,7.0,74,0.00,,,0.22,meteohub,2013-09-08 19:38:00,
2013-09-08 15:39:00,76.5,66.4,30.22,West,270,4.0,7.0,71,0.00,,,0.22,meteohub,2013-09-08 19:39:00,
2013-09-08 15:42:00,77.4,66.4,30.22,South,180,4.0,6.0,69,0.00,,,0.22,meteohub,2013-09-08 19:42:00,
2013-09-08 15:43:00,77.5,66.9,30.22,West,270,5.0,6.0,70,0.00,,,0.22,meteohub,2013-09-08 19:43:00,
2013-09-08 15:44:00,77.7,66.7,30.22,NW,315,4.0,6.0,69,0.00,,,0.22,meteohub,2013-09-08 19:44:00,
2013-09-08 15:45:00,77.9,67.3,30.22,East,90,3.0,6.0,70,0.00,,,0.22,meteohub,2013-09-08 19:45:00,
2013-09-08 15:47:00,78.4,66.6,30.22,WSW,248,5.0,6.0,67,0.00,,,0.22,meteohub,2013-09-08 19:47:00,
2013-09-08 15:48:00,78.4,66.2,30.21,West,270,7.0,7.0,66,0.00,,,0.22,meteohub,2013-09-08 19:48:00,
2013-09-08 15:49:00,78.4,66.2,30.22,SE,135,2.0,6.0,66,0.00,,,0.22,meteohub,2013-09-08 19:49:00,
2013-09-08 15:51:00,78.4,66.6,30.22,North,0,4.0,7.0,67,0.00,,,0.22,meteohub,2013-09-08 19:51:00,
2013-09-08 15:52:00,78.4,66.6,30.22,NE,45,3.0,7.0,67,0.00,,,0.22,meteohub,2013-09-08 19:52:00,
2013-09-08 15:53:00,78.3,66.7,30.22,NW,315,4.0,7.0,68,0.00,,,0.22,meteohub,2013-09-08 19:53:00,
2013-09-08 15:54:00,78.1,66.2,30.22,North,0,4.0,7.0,67,0.00,,,0.22,meteohub,2013-09-08 19:54:00,
2013-09-08 15:58:00,77.5,65.3,30.22,North,0,4.0,7.0,66,0.00,,,0.22,meteohub,2013-09-08 19:58:00,
2013-09-08 15:59:00,76.6,65.3,30.22,North,0,6.0,7.0,68,0.00,,,0.22,meteohub,2013-09-08 19:59:00,
2013-09-08 16:01:00,76.5,65.1,30.22,West,270,6.0,8.0,68,0.00,,,0.22,meteohub,2013-09-08 20:01:00,
2013-09-08 16:03:00,76.5,65.5,30.22,NW,315,4.0,8.0,69,0.00,,,0.22,meteohub,2013-09-08 20:03:00,
2013-09-08 16:04:00,76.5,65.5,30.22,NW,315,4.0,8.0,69,0.00,,,0.22,meteohub,2013-09-08 20:04:00,
2013-09-08 16:05:00,76.8,65.5,30.22,North,0,4.0,8.0,68,0.00,,,0.22,meteohub,2013-09-08 20:05:00,
2013-09-08 16:06:00,77.0,65.1,30.21,North,0,5.0,8.0,67,0.00,,,0.22,meteohub,2013-09-08 20:06:00,
2013-09-08 16:07:00,77.0,65.1,30.21,North,0,5.0,8.0,67,0.00,,,0.22,meteohub,2013-09-08 20:07:00,
2013-09-08 16:08:00,77.4,66.0,30.22,NW,315,2.0,8.0,68,0.00,,,0.22,meteohub,2013-09-08 20:08:00,
2013-09-08 16:10:00,78.3,66.0,30.22,South,180,2.0,8.0,66,0.00,,,0.22,meteohub,2013-09-08 20:10:00,
2013-09-08 16:11:00,78.6,65.8,30.22,NW,315,4.0,8.0,65,0.00,,,0.22,meteohub,2013-09-08 20:11:00,
2013-09-08 16:13:00,79.5,66.7,30.22,NW,315,5.0,8.0,65,0.00,,,0.22,meteohub,2013-09-08 20:13:00,
2013-09-08 16:14:00,79.5,65.8,30.21,NW,315,8.0,8.0,63,0.00,,,0.22,meteohub,2013-09-08 20:14:00,
2013-09-08 16:15:00,79.5,65.8,30.21,East,90,3.0,8.0,63,0.00,,,0.22,meteohub,2013-09-08 20:15:00,
2013-09-08 16:16:00,79.5,65.8,30.21,East,90,3.0,6.0,63,0.00,,,0.22,meteohub,2013-09-08 20:16:00,
2013-09-08 16:17:00,79.7,66.4,30.21,NE,45,2.0,6.0,64,0.00,,,0.22,meteohub,2013-09-08 20:17:00,
2013-09-08 16:20:00,77.9,64.8,30.22,North,0,4.0,8.0,64,0.00,,,0.22,meteohub,2013-09-08 20:20:00,
2013-09-08 16:21:00,77.4,64.8,30.22,NE,45,5.0,8.0,65,0.00,,,0.22,meteohub,2013-09-08 20:21:00,
2013-09-08 16:22:00,77.4,64.8,30.22,NE,45,5.0,8.0,65,0.00,,,0.22,meteohub,2013-09-08 20:22:00,
2013-09-08 16:23:00,76.5,65.1,30.22,West,270,5.0,8.0,68,0.00,,,0.22,meteohub,2013-09-08 20:23:00,
2013-09-08 16:27:00,76.1,65.7,30.22,SE,135,2.0,8.0,70,0.00,,,0.22,meteohub,2013-09-08 20:27:00,
2013-09-08 16:28:00,76.1,65.1,30.22,SE,135,3.0,8.0,69,0.00,,,0.22,meteohub,2013-09-08 20:28:00,
2013-09-08 16:29:00,76.3,64.9,30.21,North,0,7.0,8.0,68,0.00,,,0.22,meteohub,2013-09-08 20:29:00,
2013-09-08 16:31:00,76.3,64.9,30.21,North,0,7.0,8.0,68,0.00,,,0.22,meteohub,2013-09-08 20:31:00,
2013-09-08 16:32:00,76.5,65.1,30.22,North,0,4.0,8.0,68,0.00,,,0.22,meteohub,2013-09-08 20:32:00,
2013-09-08 16:33:00,76.1,65.7,30.22,West,270,4.0,8.0,70,0.00,,,0.22,meteohub,2013-09-08 20:33:00,
2013-09-08 16:34:00,76.1,65.7,30.22,West,270,4.0,8.0,70,0.00,,,0.22,meteohub,2013-09-08 20:34:00,
2013-09-08 16:35:00,75.7,65.7,30.22,North,0,4.0,8.0,71,0.00,,,0.22,meteohub,2013-09-08 20:35:00,
2013-09-08 16:36:00,75.4,65.7,30.22,NW,315,4.0,7.0,72,0.00,,,0.22,meteohub,2013-09-08 20:36:00,
2013-09-08 16:38:00,75.7,66.0,30.22,West,270,2.0,7.0,72,0.00,,,0.22,meteohub,2013-09-08 20:38:00,
2013-09-08 16:41:00,76.6,64.9,30.22,North,0,6.0,7.0,67,0.00,,,0.22,meteohub,2013-09-08 20:41:00,
2013-09-08 16:43:00,77.5,66.2,30.22,North,0,2.0,7.0,68,0.00,,,0.22,meteohub,2013-09-08 20:43:00,
2013-09-08 16:44:00,77.7,65.8,30.22,NE,45,2.0,7.0,67,0.00,,,0.22,meteohub,2013-09-08 20:44:00,
2013-09-08 16:45:00,77.7,65.5,30.22,NW,315,8.0,8.0,66,0.00,,,0.22,meteohub,2013-09-08 20:45:00,
2013-09-08 16:46:00,77.4,64.8,30.22,North,0,10.0,10.0,65,0.00,,,0.22,meteohub,2013-09-08 20:46:00,
2013-09-08 16:47:00,77.0,64.4,30.22,WSW,248,5.0,7.0,65,0.00,,,0.22,meteohub,2013-09-08 20:47:00,
2013-09-08 16:49:00,76.6,64.4,30.22,East,90,6.0,7.0,66,0.00,,,0.22,meteohub,2013-09-08 20:49:00,
2013-09-08 16:50:00,76.3,64.6,30.22,South,180,3.0,10.0,67,0.00,,,0.22,meteohub,2013-09-08 20:50:00,
2013-09-08 16:52:00,75.7,64.0,30.22,NW,315,4.0,10.0,67,0.00,,,0.22,meteohub,2013-09-08 20:52:00,
2013-09-08 16:54:00,75.6,64.8,30.22,North,0,4.0,10.0,69,0.00,,,0.22,meteohub,2013-09-08 20:54:00,
2013-09-08 16:55:00,75.7,63.5,30.22,North,0,4.0,10.0,66,0.00,,,0.22,meteohub,2013-09-08 20:55:00,
2013-09-08 16:57:00,76.3,64.6,30.22,North,0,2.0,10.0,67,0.00,,,0.22,meteohub,2013-09-08 20:57:00,
2013-09-08 16:58:00,76.3,64.6,30.22,North,0,2.0,10.0,67,0.00,,,0.22,meteohub,2013-09-08 20:58:00,
2013-09-08 16:59:00,76.5,63.9,30.22,North,0,3.0,10.0,65,0.00,,,0.22,meteohub,2013-09-08 20:59:00,
2013-09-08 17:00:00,76.5,64.8,30.22,WSW,248,2.0,10.0,67,0.00,,,0.22,meteohub,2013-09-08 21:00:00,
2013-09-08 17:01:00,76.5,65.1,30.22,NW,315,5.0,10.0,68,0.00,,,0.22,meteohub,2013-09-08 21:01:00,
2013-09-08 17:02:00,76.6,64.9,30.22,South,180,2.0,10.0,67,0.00,,,0.22,meteohub,2013-09-08 21:02:00,
2013-09-08 17:04:00,76.5,63.9,30.22,East,90,8.0,10.0,65,0.00,,,0.22,meteohub,2013-09-08 21:04:00,
2013-09-08 17:06:00,76.3,64.0,30.22,NW,315,2.0,6.0,66,0.00,,,0.22,meteohub,2013-09-08 21:06:00,
2013-09-08 17:08:00,75.7,63.1,30.22,North,0,4.0,6.0,65,0.00,,,0.22,meteohub,2013-09-08 21:08:00,
2013-09-08 17:10:00,75.7,63.5,30.22,NW,315,4.0,8.0,66,0.00,,,0.22,meteohub,2013-09-08 21:10:00,
2013-09-08 17:11:00,75.7,63.5,30.22,NW,315,4.0,8.0,66,0.00,,,0.22,meteohub,2013-09-08 21:11:00,
2013-09-08 17:12:00,76.1,64.4,30.22,NW,315,2.0,8.0,67,0.00,,,0.22,meteohub,2013-09-08 21:12:00,
2013-09-08 17:13:00,76.8,64.6,30.22,NW,315,4.0,8.0,66,0.00,,,0.22,meteohub,2013-09-08 21:13:00,
2013-09-08 17:16:00,77.4,64.8,30.22,North,0,4.0,8.0,65,0.00,,,0.22,meteohub,2013-09-08 21:16:00,
2013-09-08 17:18:00,77.5,63.9,30.22,NE,45,4.0,8.0,63,0.00,,,0.22,meteohub,2013-09-08 21:18:00,
2013-09-08 17:20:00,77.7,64.0,30.22,NW,315,4.0,7.0,63,0.00,,,0.22,meteohub,2013-09-08 21:20:00,
2013-09-08 17:22:00,77.5,63.5,30.22,NE,45,4.0,7.0,62,0.00,,,0.22,meteohub,2013-09-08 21:22:00,
2013-09-08 17:23:00,77.7,64.6,30.22,North,0,2.0,7.0,64,0.00,,,0.22,meteohub,2013-09-08 21:23:00,
2013-09-08 17:24:00,77.7,64.6,30.22,North,0,2.0,7.0,64,0.00,,,0.22,meteohub,2013-09-08 21:24:00,
2013-09-08 17:27:00,78.1,64.0,30.22,West,270,3.0,7.0,62,0.00,,,0.22,meteohub,2013-09-08 21:27:00,
2013-09-08 17:29:00,77.7,64.0,30.22,NW,315,3.0,7.0,63,0.00,,,0.22,meteohub,2013-09-08 21:29:00,
2013-09-08 17:30:00,77.7,64.0,30.22,West,270,4.0,7.0,63,0.00,,,0.22,meteohub,2013-09-08 21:30:00,
2013-09-08 17:32:00,77.7,64.0,30.22,North,0,4.0,7.0,63,0.00,,,0.22,meteohub,2013-09-08 21:32:00,
2013-09-08 17:33:00,77.7,64.0,30.22,North,0,4.0,7.0,63,0.00,,,0.22,meteohub,2013-09-08 21:33:00,
2013-09-08 17:35:00,77.7,63.1,30.22,NW,315,3.0,6.0,61,0.00,,,0.22,meteohub,2013-09-08 21:35:00,
2013-09-08 17:36:00,77.7,63.1,30.22,NW,315,3.0,6.0,61,0.00,,,0.22,meteohub,2013-09-08 21:36:00,
2013-09-08 17:37:00,77.7,63.1,30.22,NE,45,4.0,6.0,61,0.00,,,0.22,meteohub,2013-09-08 21:37:00,
2013-09-08 17:38:00,77.5,62.6,30.22,North,0,4.0,6.0,60,0.00,,,0.22,meteohub,2013-09-08 21:38:00,
2013-09-08 17:42:00,78.4,63.9,30.22,NW,315,3.0,6.0,61,0.00,,,0.22,meteohub,2013-09-08 21:42:00,
2013-09-08 17:43:00,78.4,63.3,30.22,NW,315,6.0,6.0,60,0.00,,,0.22,meteohub,2013-09-08 21:43:00,
2013-09-08 17:44:00,78.4,64.4,30.22,NE,45,3.0,6.0,62,0.00,,,0.22,meteohub,2013-09-08 21:44:00,
2013-09-08 17:47:00,78.1,63.1,30.22,West,270,3.0,6.0,60,0.00,,,0.22,meteohub,2013-09-08 21:47:00,
2013-09-08 17:48:00,78.1,64.0,30.22,West,270,2.0,6.0,62,0.00,,,0.22,meteohub,2013-09-08 21:48:00,
2013-09-08 17:49:00,78.1,63.5,30.22,West,270,7.0,7.0,61,0.00,,,0.22,meteohub,2013-09-08 21:49:00,
2013-09-08 17:51:00,78.1,63.5,30.22,North,0,2.0,11.0,61,0.00,,,0.22,meteohub,2013-09-08 21:51:00,
2013-09-08 17:52:00,77.9,63.0,30.22,NE,45,4.0,11.0,60,0.00,,,0.22,meteohub,2013-09-08 21:52:00,
2013-09-08 17:53:00,77.9,63.0,30.22,NE,45,4.0,11.0,60,0.00,,,0.22,meteohub,2013-09-08 21:53:00,
2013-09-08 17:54:00,77.5,63.5,30.22,North,0,6.0,11.0,62,0.00,,,0.22,meteohub,2013-09-08 21:54:00,
2013-09-08 17:57:00,76.8,64.6,30.22,NW,315,3.0,11.0,66,0.00,,,0.22,meteohub,2013-09-08 21:57:00,
2013-09-08 17:58:00,76.6,63.1,30.22,NE,45,4.0,11.0,63,0.00,,,0.22,meteohub,2013-09-08 21:58:00,
2013-09-08 18:00:00,76.6,62.6,30.22,North,0,3.0,11.0,62,0.00,,,0.22,meteohub,2013-09-08 22:00:00,
2013-09-08 18:03:00,76.6,63.1,30.22,NW,315,2.0,11.0,63,0.00,,,0.22,meteohub,2013-09-08 22:03:00,
2013-09-08 18:04:00,76.6,62.2,30.22,North,0,7.0,11.0,61,0.00,,,0.22,meteohub,2013-09-08 22:04:00,
2013-09-08 18:05:00,76.6,62.6,30.22,NW,315,4.0,7.0,62,0.00,,,0.22,meteohub,2013-09-08 22:05:00,
2013-09-08 18:06:00,76.6,63.1,30.22,NE,45,4.0,7.0,63,0.00,,,0.22,meteohub,2013-09-08 22:06:00,
2013-09-08 18:09:00,76.6,63.5,30.22,North,0,3.0,7.0,64,0.00,,,0.22,meteohub,2013-09-08 22:09:00,
2013-09-08 18:10:00,76.5,63.0,30.22,NE,45,5.0,7.0,63,0.00,,,0.22,meteohub,2013-09-08 22:10:00,
2013-09-08 18:11:00,76.5,63.0,30.22,NE,45,5.0,7.0,63,0.00,,,0.22,meteohub,2013-09-08 22:11:00,
2013-09-08 18:13:00,76.6,63.1,30.22,North,0,2.0,7.0,63,0.00,,,0.22,meteohub,2013-09-08 22:13:00,
2013-09-08 18:14:00,76.6,64.0,30.22,North,0,4.0,7.0,65,0.00,,,0.22,meteohub,2013-09-08 22:14:00,
2013-09-08 18:16:00,76.3,63.7,30.22,South,180,2.0,7.0,65,0.00,,,0.22,meteohub,2013-09-08 22:16:00,
2013-09-08 18:17:00,76.3,63.1,30.22,NW,315,3.0,7.0,64,0.00,,,0.22,meteohub,2013-09-08 22:17:00,
2013-09-08 18:18:00,76.3,63.1,30.22,NW,315,3.0,7.0,64,0.00,,,0.22,meteohub,2013-09-08 22:18:00,
2013-09-08 18:19:00,76.1,62.6,30.22,North,0,4.0,7.0,63,0.00,,,0.22,meteohub,2013-09-08 22:19:00,
2013-09-08 18:20:00,76.1,62.6,30.22,North,0,4.0,5.0,63,0.00,,,0.22,meteohub,2013-09-08 22:20:00,
2013-09-08 18:21:00,75.7,62.8,30.23,North,0,4.0,5.0,64,0.00,,,0.22,meteohub,2013-09-08 22:21:00,
2013-09-08 18:22:00,75.6,62.6,30.22,North,0,2.0,5.0,64,0.00,,,0.22,meteohub,2013-09-08 22:22:00,
2013-09-08 18:24:00,75.0,63.0,30.23,North,0,2.0,5.0,66,0.00,,,0.22,meteohub,2013-09-08 22:24:00,
2013-09-08 18:25:00,74.8,63.1,30.23,East,90,5.0,5.0,67,0.00,,,0.22,meteohub,2013-09-08 22:25:00,
2013-09-08 18:26:00,74.1,62.1,30.23,NE,45,5.0,5.0,66,0.00,,,0.22,meteohub,2013-09-08 22:26:00,
2013-09-08 18:27:00,74.1,62.1,30.23,NE,45,5.0,5.0,66,0.00,,,0.22,meteohub,2013-09-08 22:27:00,
2013-09-08 18:28:00,73.6,63.1,30.22,North,0,5.0,5.0,70,0.00,,,0.22,meteohub,2013-09-08 22:28:00,
2013-09-08 18:29:00,73.2,63.3,30.23,NW,315,2.0,5.0,71,0.00,,,0.22,meteohub,2013-09-08 22:29:00,
2013-09-08 18:30:00,73.0,62.2,30.23,NW,315,2.0,5.0,69,0.00,,,0.22,meteohub,2013-09-08 22:30:00,
2013-09-08 18:31:00,73.0,62.2,30.23,NW,315,2.0,5.0,69,0.00,,,0.22,meteohub,2013-09-08 22:31:00,
2013-09-08 18:32:00,72.5,63.0,30.23,SE,135,2.0,5.0,72,0.00,,,0.22,meteohub,2013-09-08 22:32:00,
2013-09-08 18:34:00,71.8,62.6,30.23,West,270,2.0,5.0,73,0.00,,,0.22,meteohub,2013-09-08 22:34:00,
2013-09-08 18:35:00,71.4,62.8,30.23,NW,315,1.0,5.0,74,0.00,,,0.22,meteohub,2013-09-08 22:35:00,
2013-09-08 18:37:00,71.4,63.1,30.23,NW,315,2.0,5.0,75,0.00,,,0.22,meteohub,2013-09-08 22:37:00,
2013-09-08 18:39:00,71.1,63.1,30.23,North,0,3.0,5.0,76,0.00,,,0.22,meteohub,2013-09-08 22:39:00,
2013-09-08 18:40:00,70.9,63.0,30.23,East,90,1.0,5.0,76,0.00,,,0.22,meteohub,2013-09-08 22:40:00,
2013-09-08 18:41:00,70.7,63.5,30.23,NE,45,2.0,5.0,78,0.00,,,0.22,meteohub,2013-09-08 22:41:00,
2013-09-08 18:43:00,70.5,63.3,30.23,NW,315,3.0,5.0,78,0.00,,,0.22,meteohub,2013-09-08 22:43:00,
2013-09-08 18:45:00,70.2,63.3,30.23,NE,45,3.0,5.0,79,0.00,,,0.22,meteohub,2013-09-08 22:45:00,
2013-09-08 18:46:00,70.0,63.1,30.23,North,0,3.0,4.0,79,0.00,,,0.22,meteohub,2013-09-08 22:46:00,
2013-09-08 18:47:00,69.8,62.6,30.23,NW,315,2.0,4.0,78,0.00,,,0.22,meteohub,2013-09-08 22:47:00,
2013-09-08 18:48:00,69.8,62.6,30.23,North,0,3.0,4.0,78,0.00,,,0.22,meteohub,2013-09-08 22:48:00,
2013-09-08 18:50:00,69.8,63.0,30.23,East,90,1.0,4.0,79,0.00,,,0.22,meteohub,2013-09-08 22:50:00,
2013-09-08 18:52:00,69.4,62.6,30.23,NW,315,0.0,5.0,79,0.00,,,0.22,meteohub,2013-09-08 22:52:00,
2013-09-08 18:53:00,69.3,62.4,30.23,NW,315,4.0,5.0,79,0.00,,,0.22,meteohub,2013-09-08 22:53:00,
2013-09-08 18:55:00,69.3,62.4,30.23,West,270,2.0,5.0,79,0.00,,,0.22,meteohub,2013-09-08 22:55:00,
2013-09-08 18:57:00,69.1,62.2,30.24,North,0,2.0,5.0,79,0.00,,,0.22,meteohub,2013-09-08 22:57:00,
2013-09-08 18:58:00,69.1,62.2,30.24,North,0,2.0,5.0,79,0.00,,,0.22,meteohub,2013-09-08 22:58:00,
2013-09-08 19:01:00,68.9,62.1,30.23,North,0,2.0,4.0,79,0.00,,,0.22,meteohub,2013-09-08 23:01:00,
2013-09-08 19:02:00,68.7,62.2,30.24,NW,315,2.0,4.0,80,0.00,,,0.22,meteohub,2013-09-08 23:02:00,
2013-09-08 19:03:00,68.7,62.2,30.24,WSW,248,2.0,4.0,80,0.00,,,0.22,meteohub,2013-09-08 23:03:00,
2013-09-08 19:04:00,68.5,62.1,30.24,North,0,1.0,4.0,80,0.00,,,0.22,meteohub,2013-09-08 23:04:00,
2013-09-08 19:06:00,68.4,61.9,30.23,NW,315,0.0,4.0,80,0.00,,,0.22,meteohub,2013-09-08 23:06:00,
2013-09-08 19:07:00,68.4,61.9,30.24,North,0,1.0,4.0,80,0.00,,,0.22,meteohub,2013-09-08 23:07:00,
2013-09-08 19:08:00,68.4,61.9,30.24,WSW,248,2.0,4.0,80,0.00,,,0.22,meteohub,2013-09-08 23:08:00,
2013-09-08 19:09:00,68.2,61.7,30.24,WSW,248,1.0,4.0,80,0.00,,,0.22,meteohub,2013-09-08 23:09:00,
2013-09-08 19:10:00,68.2,61.7,30.24,WSW,248,2.0,3.0,80,0.00,,,0.22,meteohub,2013-09-08 23:10:00,
2013-09-08 19:12:00,68.0,61.5,30.24,WSW,248,0.0,3.0,80,0.00,,,0.22,meteohub,2013-09-08 23:12:00,
2013-09-08 19:13:00,67.8,61.7,30.24,North,0,1.0,3.0,81,0.00,,,0.22,meteohub,2013-09-08 23:13:00,
2013-09-08 19:14:00,67.6,61.5,30.24,WSW,248,1.0,3.0,81,0.00,,,0.22,meteohub,2013-09-08 23:14:00,
2013-09-08 19:16:00,67.6,61.5,30.24,NW,315,1.0,2.0,81,0.00,,,0.22,meteohub,2013-09-08 23:16:00,
2013-09-08 19:17:00,67.5,61.7,30.24,WSW,248,1.0,2.0,82,0.00,,,0.22,meteohub,2013-09-08 23:17:00,
2013-09-08 19:19:00,67.3,61.5,30.24,SE,135,1.0,2.0,82,0.00,,,0.22,meteohub,2013-09-08 23:19:00,
2013-09-08 19:20:00,67.3,61.5,30.25,South,180,1.0,2.0,82,0.00,,,0.22,meteohub,2013-09-08 23:20:00,
2013-09-08 19:22:00,66.9,61.5,30.24,WSW,248,1.0,2.0,83,0.00,,,0.22,meteohub,2013-09-08 23:22:00,
2013-09-08 19:25:00,66.7,61.3,30.25,WSW,248,2.0,2.0,83,0.00,,,0.22,meteohub,2013-09-08 23:25:00,
2013-09-08 19:27:00,66.7,61.3,30.24,East,90,1.0,2.0,83,0.00,,,0.22,meteohub,2013-09-08 23:27:00,
2013-09-08 19:30:00,66.6,61.5,30.24,NE,45,2.0,3.0,84,0.00,,,0.22,meteohub,2013-09-08 23:30:00,
2013-09-08 19:31:00,66.6,61.5,30.25,NE,45,2.0,3.0,84,0.00,,,0.22,meteohub,2013-09-08 23:31:00,
2013-09-08 19:33:00,66.4,61.3,30.24,North,0,0.0,3.0,84,0.00,,,0.22,meteohub,2013-09-08 23:33:00,
2013-09-08 19:35:00,66.0,61.0,30.25,NE,45,0.0,3.0,84,0.00,,,0.22,meteohub,2013-09-08 23:35:00,
2013-09-08 19:36:00,66.0,61.3,30.25,NE,45,0.0,3.0,85,0.00,,,0.22,meteohub,2013-09-08 23:36:00,
2013-09-08 19:38:00,65.8,61.2,30.25,NW,315,0.0,3.0,85,0.00,,,0.22,meteohub,2013-09-08 23:38:00,
2013-09-08 19:40:00,65.5,60.8,30.25,North,0,0.0,3.0,85,0.00,,,0.22,meteohub,2013-09-08 23:40:00,
2013-09-08 19:41:00,65.5,60.8,30.25,North,0,0.0,3.0,85,0.00,,,0.22,meteohub,2013-09-08 23:41:00,
2013-09-08 19:43:00,65.3,61.0,30.24,North,0,0.0,3.0,86,0.00,,,0.22,meteohub,2013-09-08 23:43:00,
2013-09-08 19:44:00,65.1,60.8,30.25,NE,45,0.0,3.0,86,0.00,,,0.22,meteohub,2013-09-08 23:44:00,
2013-09-08 19:45:00,65.1,60.8,30.25,NE,45,0.0,3.0,86,0.00,,,0.22,meteohub,2013-09-08 23:45:00,
2013-09-08 19:46:00,65.1,60.8,30.24,NE,45,0.0,2.0,86,0.00,,,0.22,meteohub,2013-09-08 23:46:00,
2013-09-08 19:49:00,64.8,60.8,30.24,West,270,2.0,2.0,87,0.00,,,0.22,meteohub,2013-09-08 23:49:00,
2013-09-08 19:50:00,64.8,60.8,30.25,North,0,2.0,2.0,87,0.00,,,0.22,meteohub,2013-09-08 23:50:00,
2013-09-08 19:51:00,64.8,60.8,30.25,East,90,2.0,0.0,87,0.00,,,0.22,meteohub,2013-09-08 23:51:00,
2013-09-08 19:52:00,64.8,60.8,30.25,NE,45,2.0,0.0,87,0.00,,,0.22,meteohub,2013-09-08 23:52:00,
2013-09-08 19:53:00,64.8,60.8,30.24,North,0,2.0,0.0,87,0.00,,,0.22,meteohub,2013-09-08 23:53:00,
2013-09-08 19:55:00,64.6,60.6,30.25,East,90,1.0,2.0,87,0.00,,,0.22,meteohub,2013-09-08 23:55:00,
2013-09-08 19:56:00,64.6,60.6,30.25,NE,45,2.0,2.0,87,0.00,,,0.22,meteohub,2013-09-08 23:56:00,
2013-09-08 19:57:00,64.6,60.6,30.25,North,0,2.0,2.0,87,0.00,,,0.22,meteohub,2013-09-08 23:57:00,
2013-09-08 19:59:00,64.6,61.0,30.25,NE,45,2.0,2.0,88,0.00,,,0.22,meteohub,2013-09-08 23:59:00,
2013-09-08 20:01:00,64.6,61.0,30.25,North,0,0.0,2.0,88,0.00,,,0.22,meteohub,2013-09-09 00:01:00,
2013-09-08 20:02:00,64.4,60.8,30.25,SE,135,0.0,2.0,88,0.00,,,0.22,meteohub,2013-09-09 00:02:00,
2013-09-08 20:04:00,64.4,60.8,30.25,NE,45,0.0,2.0,88,0.00,,,0.22,meteohub,2013-09-09 00:04:00,
2013-09-08 20:07:00,64.2,60.6,30.25,NE,45,0.0,2.0,88,0.00,,,0.22,meteohub,2013-09-09 00:07:00,
2013-09-08 20:08:00,64.0,60.4,30.25,East,90,0.0,2.0,88,0.00,,,0.22,meteohub,2013-09-09 00:08:00,
2013-09-08 20:10:00,64.0,60.4,30.25,NE,45,0.0,2.0,88,0.00,,,0.22,meteohub,2013-09-09 00:10:00,
2013-09-08 20:13:00,63.9,60.6,30.25,North,0,4.0,4.0,89,0.00,,,0.22,meteohub,2013-09-09 00:13:00,
2013-09-08 20:15:00,63.9,60.6,30.25,East,90,2.0,2.0,89,0.00,,,0.22,meteohub,2013-09-09 00:15:00,
2013-09-08 20:17:00,63.9,60.6,30.25,WSW,248,0.0,4.0,89,0.00,,,0.22,meteohub,2013-09-09 00:17:00,
2013-09-08 20:18:00,63.9,60.3,30.25,NE,45,2.0,4.0,88,0.00,,,0.22,meteohub,2013-09-09 00:18:00,
2013-09-08 20:19:00,63.9,60.3,30.25,NE,45,2.0,4.0,88,0.00,,,0.22,meteohub,2013-09-09 00:19:00,
2013-09-08 20:21:00,63.7,60.4,30.25,North,0,2.0,4.0,89,0.00,,,0.22,meteohub,2013-09-09 00:21:00,
2013-09-08 20:22:00,63.7,60.4,30.25,North,0,2.0,4.0,89,0.00,,,0.22,meteohub,2013-09-09 00:22:00,
2013-09-08 20:23:00,63.7,60.1,30.25,NE,45,3.0,4.0,88,0.00,,,0.22,meteohub,2013-09-09 00:23:00,
2013-09-08 20:24:00,63.5,60.3,30.25,North,0,2.0,4.0,89,0.00,,,0.22,meteohub,2013-09-09 00:24:00,
2013-09-08 20:26:00,63.5,60.3,30.25,North,0,2.0,4.0,89,0.00,,,0.22,meteohub,2013-09-09 00:26:00,
2013-09-08 20:27:00,63.5,59.9,30.26,NE,45,2.0,4.0,88,0.00,,,0.22,meteohub,2013-09-09 00:27:00,
2013-09-08 20:28:00,63.5,59.9,30.25,North,0,2.0,4.0,88,0.00,,,0.22,meteohub,2013-09-09 00:28:00,
2013-09-08 20:29:00,63.5,59.9,30.25,North,0,2.0,4.0,88,0.00,,,0.22,meteohub,2013-09-09 00:29:00,
2013-09-08 20:30:00,63.5,59.9,30.25,North,0,2.0,4.0,88,0.00,,,0.22,meteohub,2013-09-09 00:30:00,
2013-09-08 20:31:00,63.5,59.9,30.25,NE,45,2.0,3.0,88,0.00,,,0.22,meteohub,2013-09-09 00:31:00,
2013-09-08 20:32:00,63.5,59.9,30.25,North,0,2.0,3.0,88,0.00,,,0.22,meteohub,2013-09-09 00:32:00,
2013-09-08 20:34:00,63.5,59.5,30.25,East,90,1.0,3.0,87,0.00,,,0.22,meteohub,2013-09-09 00:34:00,
2013-09-08 20:35:00,63.5,59.5,30.26,North,0,1.0,3.0,87,0.00,,,0.22,meteohub,2013-09-09 00:35:00,
2013-09-08 20:36:00,63.5,59.5,30.26,North,0,2.0,3.0,87,0.00,,,0.22,meteohub,2013-09-09 00:36:00,
2013-09-08 20:38:00,63.5,59.2,30.25,North,0,4.0,4.0,86,0.00,,,0.22,meteohub,2013-09-09 00:38:00,
2013-09-08 20:40:00,63.5,59.2,30.26,East,90,1.0,4.0,86,0.00,,,0.22,meteohub,2013-09-09 00:40:00,
2013-09-08 20:41:00,63.5,59.2,30.26,East,90,0.0,4.0,86,0.00,,,0.22,meteohub,2013-09-09 00:41:00,
2013-09-08 20:42:00,63.5,59.2,30.26,East,90,0.0,4.0,86,0.00,,,0.22,meteohub,2013-09-09 00:42:00,
2013-09-08 20:46:00,63.3,58.8,30.26,East,90,2.0,4.0,85,0.00,,,0.22,meteohub,2013-09-09 00:46:00,
2013-09-08 20:48:00,63.3,58.8,30.26,North,0,1.0,4.0,85,0.00,,,0.22,meteohub,2013-09-09 00:48:00,
2013-09-08 20:50:00,63.3,58.8,30.27,NE,45,1.0,4.0,85,0.00,,,0.22,meteohub,2013-09-09 00:50:00,
2013-09-08 20:51:00,63.1,58.6,30.27,South,180,1.0,4.0,85,0.00,,,0.22,meteohub,2013-09-09 00:51:00,
2013-09-08 20:52:00,63.1,58.6,30.27,South,180,1.0,4.0,85,0.00,,,0.22,meteohub,2013-09-09 00:52:00,
2013-09-08 20:53:00,63.1,58.6,30.26,SE,135,1.0,4.0,85,0.00,,,0.22,meteohub,2013-09-09 00:53:00,
2013-09-08 20:57:00,63.1,58.6,30.27,NE,45,3.0,3.0,85,0.00,,,0.22,meteohub,2013-09-09 00:57:00,
2013-09-08 20:58:00,63.3,58.8,30.27,North,0,4.0,4.0,85,0.00,,,0.22,meteohub,2013-09-09 00:58:00,
2013-09-08 20:59:00,63.3,58.8,30.27,NE,45,4.0,4.0,85,0.00,,,0.22,meteohub,2013-09-09 00:59:00,
2013-09-08 21:00:00,63.3,58.8,30.27,East,90,2.0,2.0,85,0.00,,,0.22,meteohub,2013-09-09 01:00:00,
2013-09-08 21:02:00,63.5,58.6,30.26,West,270,2.0,3.0,84,0.00,,,0.22,meteohub,2013-09-09 01:02:00,
2013-09-08 21:03:00,63.5,58.6,30.26,North,0,2.0,3.0,84,0.00,,,0.22,meteohub,2013-09-09 01:03:00,
2013-09-08 21:07:00,63.9,58.6,30.27,East,90,3.0,4.0,83,0.00,,,0.22,meteohub,2013-09-09 01:07:00,
2013-09-08 21:08:00,63.9,58.6,30.27,East,90,3.0,4.0,83,0.00,,,0.22,meteohub,2013-09-09 01:08:00,
2013-09-08 21:09:00,63.9,58.6,30.27,East,90,2.0,4.0,83,0.00,,,0.22,meteohub,2013-09-09 01:09:00,
2013-09-08 21:10:00,64.0,58.5,30.27,East,90,2.0,6.0,82,0.00,,,0.22,meteohub,2013-09-09 01:10:00,
2013-09-08 21:13:00,64.0,58.5,30.27,SE,135,2.0,6.0,82,0.00,,,0.22,meteohub,2013-09-09 01:13:00,
2013-09-08 21:14:00,64.0,58.5,30.27,SE,135,2.0,6.0,82,0.00,,,0.22,meteohub,2013-09-09 01:14:00,
2013-09-08 21:15:00,64.0,58.1,30.27,East,90,4.0,6.0,81,0.00,,,0.22,meteohub,2013-09-09 01:15:00,
2013-09-08 21:17:00,64.2,58.3,30.28,North,0,2.0,6.0,81,0.00,,,0.22,meteohub,2013-09-09 01:17:00,
2013-09-08 21:19:00,64.2,58.3,30.27,North,0,3.0,6.0,81,0.00,,,0.22,meteohub,2013-09-09 01:19:00,
2013-09-08 21:20:00,64.2,57.9,30.27,West,270,4.0,6.0,80,0.00,,,0.22,meteohub,2013-09-09 01:20:00,
2013-09-08 21:21:00,64.2,57.9,30.27,East,90,4.0,6.0,80,0.00,,,0.22,meteohub,2013-09-09 01:21:00,
2013-09-08 21:23:00,64.2,57.9,30.28,North,0,3.0,6.0,80,0.00,,,0.22,meteohub,2013-09-09 01:23:00,
2013-09-08 21:24:00,64.2,57.6,30.27,NE,45,2.0,6.0,79,0.00,,,0.22,meteohub,2013-09-09 01:24:00,
2013-09-08 21:26:00,64.2,57.6,30.27,East,90,5.0,5.0,79,0.00,,,0.22,meteohub,2013-09-09 01:26:00,
2013-09-08 21:27:00,64.2,57.6,30.27,SE,135,3.0,5.0,79,0.00,,,0.22,meteohub,2013-09-09 01:27:00,
2013-09-08 21:28:00,64.2,57.6,30.28,SE,135,3.0,5.0,79,0.00,,,0.22,meteohub,2013-09-09 01:28:00,
2013-09-08 21:29:00,64.2,57.6,30.28,SE,135,3.0,5.0,79,0.00,,,0.22,meteohub,2013-09-09 01:29:00,
2013-09-08 21:31:00,64.2,57.6,30.28,South,180,3.0,5.0,79,0.00,,,0.22,meteohub,2013-09-09 01:31:00,
2013-09-08 21:33:00,64.2,57.6,30.28,South,180,3.0,5.0,79,0.00,,,0.22,meteohub,2013-09-09 01:33:00,
2013-09-08 21:34:00,64.2,57.6,30.28,South,180,3.0,5.0,79,0.00,,,0.22,meteohub,2013-09-09 01:34:00,
2013-09-08 21:36:00,64.2,57.6,30.28,South,180,3.0,5.0,79,0.00,,,0.22,meteohub,2013-09-09 01:36:00,
2013-09-08 21:37:00,64.2,57.6,30.28,South,180,3.0,5.0,79,0.00,,,0.22,meteohub,2013-09-09 01:37:00,
2013-09-08 21:39:00,64.2,57.6,30.28,South,180,3.0,5.0,79,0.00,,,0.22,meteohub,2013-09-09 01:39:00,
2013-09-08 21:41:00,63.9,57.6,30.28,South,180,3.0,5.0,80,0.00,,,0.22,meteohub,2013-09-09 01:41:00,
2013-09-08 21:43:00,63.7,57.4,30.29,South,180,2.0,5.0,80,0.00,,,0.22,meteohub,2013-09-09 01:43:00,
2013-09-08 21:44:00,63.7,57.4,30.28,South,180,2.0,5.0,80,0.00,,,0.22,meteohub,2013-09-09 01:44:00,
2013-09-08 21:48:00,63.5,57.6,30.29,NE,45,4.0,4.0,81,0.00,,,0.22,meteohub,2013-09-09 01:48:00,
2013-09-08 21:49:00,63.5,57.9,30.29,SE,135,4.0,4.0,82,0.00,,,0.22,meteohub,2013-09-09 01:49:00,
2013-09-08 21:50:00,63.3,57.7,30.29,SE,135,2.0,4.0,82,0.00,,,0.22,meteohub,2013-09-09 01:50:00,
2013-09-08 21:55:00,63.1,57.6,30.29,SE,135,4.0,4.0,82,0.00,,,0.22,meteohub,2013-09-09 01:55:00,
2013-09-08 21:56:00,63.1,57.9,30.29,South,180,3.0,4.0,83,0.00,,,0.22,meteohub,2013-09-09 01:56:00,
2013-09-08 21:58:00,63.0,57.7,30.29,South,180,4.0,4.0,83,0.00,,,0.22,meteohub,2013-09-09 01:58:00,
2013-09-08 22:00:00,63.0,57.4,30.29,South,180,2.0,4.0,82,0.00,,,0.22,meteohub,2013-09-09 02:00:00,
2013-09-08 22:01:00,63.0,57.4,30.29,South,180,2.0,5.0,82,0.00,,,0.22,meteohub,2013-09-09 02:01:00,
2013-09-08 22:05:00,63.0,57.4,30.29,South,180,2.0,5.0,82,0.00,,,0.22,meteohub,2013-09-09 02:05:00,
2013-09-08 22:06:00,63.0,57.4,30.29,South,180,2.0,5.0,82,0.00,,,0.22,meteohub,2013-09-09 02:06:00,
2013-09-08 22:07:00,63.0,57.4,30.29,South,180,2.0,5.0,82,0.00,,,0.22,meteohub,2013-09-09 02:07:00,
2013-09-08 22:10:00,62.4,57.6,30.29,East,90,2.0,5.0,84,0.00,,,0.22,meteohub,2013-09-09 02:10:00,
2013-09-08 22:12:00,62.4,57.6,30.29,East,90,2.0,5.0,84,0.00,,,0.22,meteohub,2013-09-09 02:12:00,
2013-09-08 22:13:00,62.2,57.4,30.29,WSW,248,2.0,5.0,84,0.00,,,0.22,meteohub,2013-09-09 02:13:00,
2013-09-08 22:15:00,62.2,57.7,30.29,SE,135,3.0,4.0,85,0.00,,,0.22,meteohub,2013-09-09 02:15:00,
2013-09-08 22:18:00,62.1,57.7,30.29,East,90,2.0,4.0,86,0.00,,,0.22,meteohub,2013-09-09 02:18:00,
2013-09-08 22:19:00,62.1,57.7,30.29,East,90,2.0,4.0,86,0.00,,,0.22,meteohub,2013-09-09 02:19:00,
2013-09-08 22:20:00,61.9,57.6,30.29,East,90,3.0,4.0,86,0.00,,,0.22,meteohub,2013-09-09 02:20:00,
2013-09-08 22:21:00,61.9,57.6,30.29,East,90,3.0,4.0,86,0.00,,,0.22,meteohub,2013-09-09 02:21:00,
2013-09-08 22:24:00,61.9,57.6,30.29,East,90,3.0,4.0,86,0.00,,,0.22,meteohub,2013-09-09 02:24:00,
2013-09-08 22:25:00,61.7,57.4,30.29,East,90,4.0,4.0,86,0.00,,,0.22,meteohub,2013-09-09 02:25:00,
2013-09-08 22:26:00,61.7,57.4,30.29,East,90,3.0,4.0,86,0.00,,,0.22,meteohub,2013-09-09 02:26:00,
2013-09-08 22:27:00,61.7,57.4,30.29,East,90,3.0,4.0,86,0.00,,,0.22,meteohub,2013-09-09 02:27:00,
2013-09-08 22:28:00,61.7,57.4,30.29,East,90,3.0,4.0,86,0.00,,,0.22,meteohub,2013-09-09 02:28:00,
2013-09-08 22:29:00,61.7,57.4,30.30,East,90,3.0,4.0,86,0.00,,,0.22,meteohub,2013-09-09 02:29:00,
2013-09-08 22:32:00,61.7,57.4,30.30,SE,135,2.0,4.0,86,0.00,,,0.22,meteohub,2013-09-09 02:32:00,
2013-09-08 22:33:00,61.7,57.4,30.29,East,90,4.0,4.0,86,0.00,,,0.22,meteohub,2013-09-09 02:33:00,
2013-09-08 22:34:00,61.7,57.4,30.29,SE,135,4.0,4.0,86,0.00,,,0.22,meteohub,2013-09-09 02:34:00,
2013-09-08 22:35:00,61.5,57.6,30.30,East,90,3.0,4.0,87,0.00,,,0.22,meteohub,2013-09-09 02:35:00,
2013-09-08 22:36:00,61.5,57.6,30.29,WSW,248,3.0,4.0,87,0.00,,,0.22,meteohub,2013-09-09 02:36:00,
2013-09-08 22:37:00,61.5,57.6,30.29,WSW,248,3.0,4.0,87,0.00,,,0.22,meteohub,2013-09-09 02:37:00,
2013-09-08 22:38:00,61.5,57.6,30.29,East,90,2.0,4.0,87,0.00,,,0.22,meteohub,2013-09-09 02:38:00,
2013-09-08 22:39:00,61.5,57.6,30.29,East,90,2.0,4.0,87,0.00,,,0.22,meteohub,2013-09-09 02:39:00,
2013-09-08 22:40:00,61.3,57.4,30.29,East,90,3.0,4.0,87,0.00,,,0.22,meteohub,2013-09-09 02:40:00,
2013-09-08 22:41:00,61.3,57.2,30.29,East,90,3.0,4.0,86,0.00,,,0.22,meteohub,2013-09-09 02:41:00,
2013-09-08 22:42:00,61.3,57.2,30.29,SE,135,3.0,4.0,86,0.00,,,0.22,meteohub,2013-09-09 02:42:00,
2013-09-08 22:43:00,61.3,57.2,30.29,East,90,2.0,4.0,86,0.00,,,0.22,meteohub,2013-09-09 02:43:00,
2013-09-08 22:46:00,61.3,56.8,30.29,East,90,5.0,5.0,85,0.00,,,0.22,meteohub,2013-09-09 02:46:00,
2013-09-08 22:48:00,61.2,56.7,30.30,East,90,5.0,5.0,85,0.00,,,0.22,meteohub,2013-09-09 02:48:00,
2013-09-08 22:49:00,61.2,56.7,30.30,SE,135,3.0,4.0,85,0.00,,,0.22,meteohub,2013-09-09 02:49:00,
2013-09-08 22:52:00,61.2,56.7,30.30,East,90,2.0,5.0,85,0.00,,,0.22,meteohub,2013-09-09 02:52:00,
2013-09-08 22:53:00,61.0,56.5,30.30,SE,135,2.0,5.0,85,0.00,,,0.22,meteohub,2013-09-09 02:53:00,
2013-09-08 22:54:00,61.0,56.5,30.30,East,90,3.0,5.0,85,0.00,,,0.22,meteohub,2013-09-09 02:54:00,
2013-09-08 22:55:00,61.0,56.5,30.30,East,90,3.0,5.0,85,0.00,,,0.22,meteohub,2013-09-09 02:55:00,
2013-09-08 22:57:00,61.0,56.1,30.30,East,90,3.0,5.0,84,0.00,,,0.22,meteohub,2013-09-09 02:57:00,
2013-09-08 22:58:00,61.0,56.5,30.30,East,90,3.0,5.0,85,0.00,,,0.22,meteohub,2013-09-09 02:58:00,
2013-09-08 22:59:00,60.8,55.9,30.30,East,90,3.0,5.0,84,0.00,,,0.22,meteohub,2013-09-09 02:59:00,
2013-09-08 23:00:00,60.8,55.9,30.30,East,90,3.0,5.0,84,0.00,,,0.22,meteohub,2013-09-09 03:00:00,
2013-09-08 23:02:00,60.8,55.9,30.30,East,90,3.0,5.0,84,0.00,,,0.22,meteohub,2013-09-09 03:02:00,
2013-09-08 23:04:00,60.8,55.9,30.30,East,90,3.0,5.0,84,0.00,,,0.22,meteohub,2013-09-09 03:04:00,
2013-09-08 23:05:00,60.8,55.9,30.30,East,90,3.0,4.0,84,0.00,,,0.22,meteohub,2013-09-09 03:05:00,
2013-09-08 23:06:00,60.8,55.9,30.30,East,90,3.0,4.0,84,0.00,,,0.22,meteohub,2013-09-09 03:06:00,
2013-09-08 23:08:00,60.6,55.8,30.30,East,90,3.0,4.0,84,0.00,,,0.22,meteohub,2013-09-09 03:08:00,
2013-09-08 23:11:00,60.6,55.8,30.30,East,90,3.0,4.0,84,0.00,,,0.22,meteohub,2013-09-09 03:11:00,
2013-09-08 23:12:00,60.4,55.6,30.30,East,90,4.0,4.0,84,0.00,,,0.22,meteohub,2013-09-09 03:12:00,
2013-09-08 23:13:00,60.4,55.6,30.30,East,90,4.0,4.0,84,0.00,,,0.22,meteohub,2013-09-09 03:13:00,
2013-09-08 23:15:00,60.4,55.6,30.30,East,90,4.0,5.0,84,0.00,,,0.22,meteohub,2013-09-09 03:15:00,
2013-09-08 23:16:00,60.4,55.6,30.30,East,90,3.0,5.0,84,0.00,,,0.22,meteohub,2013-09-09 03:16:00,
2013-09-08 23:18:00,60.3,55.4,30.30,East,90,4.0,5.0,84,0.00,,,0.22,meteohub,2013-09-09 03:18:00,
2013-09-08 23:21:00,60.3,55.4,30.31,SE,135,3.0,5.0,84,0.00,,,0.22,meteohub,2013-09-09 03:21:00,
2013-09-08 23:22:00,60.3,55.4,30.30,East,90,3.0,5.0,84,0.00,,,0.22,meteohub,2013-09-09 03:22:00,
2013-09-08 23:23:00,60.3,55.4,30.30,East,90,3.0,5.0,84,0.00,,,0.22,meteohub,2013-09-09 03:23:00,
2013-09-08 23:26:00,60.3,55.4,30.30,East,90,2.0,5.0,84,0.00,,,0.22,meteohub,2013-09-09 03:26:00,
2013-09-08 23:27:00,60.1,55.2,30.30,East,90,3.0,5.0,84,0.00,,,0.22,meteohub,2013-09-09 03:27:00,
2013-09-08 23:28:00,60.1,55.2,30.31,East,90,3.0,5.0,84,0.00,,,0.22,meteohub,2013-09-09 03:28:00,
2013-09-08 23:29:00,60.1,55.2,30.30,East,90,2.0,5.0,84,0.00,,,0.22,meteohub,2013-09-09 03:29:00,
2013-09-08 23:31:00,60.1,55.2,30.30,East,90,3.0,4.0,84,0.00,,,0.22,meteohub,2013-09-09 03:31:00,
2013-09-08 23:32:00,60.1,55.2,30.30,East,90,3.0,4.0,84,0.00,,,0.22,meteohub,2013-09-09 03:32:00,
2013-09-08 23:34:00,60.1,55.2,30.31,East,90,3.0,4.0,84,0.00,,,0.22,meteohub,2013-09-09 03:34:00,
2013-09-08 23:36:00,60.1,55.2,30.31,East,90,3.0,4.0,84,0.00,,,0.22,meteohub,2013-09-09 03:36:00,
2013-09-08 23:37:00,60.1,55.2,30.31,East,90,3.0,4.0,84,0.00,,,0.22,meteohub,2013-09-09 03:37:00,
2013-09-08 23:41:00,60.1,55.2,30.31,East,90,3.0,4.0,84,0.00,,,0.22,meteohub,2013-09-09 03:41:00,
2013-09-08 23:42:00,60.1,54.9,30.31,SE,135,3.0,4.0,83,0.00,,,0.22,meteohub,2013-09-09 03:42:00,
2013-09-08 23:43:00,60.1,54.9,30.31,East,90,3.0,4.0,83,0.00,,,0.22,meteohub,2013-09-09 03:43:00,
2013-09-08 23:45:00,60.1,54.9,30.31,East,90,3.0,4.0,83,0.00,,,0.22,meteohub,2013-09-09 03:45:00,
2013-09-08 23:46:00,60.1,54.9,30.31,East,90,3.0,4.0,83,0.00,,,0.22,meteohub,2013-09-09 03:46:00,
2013-09-08 23:48:00,60.1,54.9,30.31,East,90,2.0,4.0,83,0.00,,,0.22,meteohub,2013-09-09 03:48:00,
2013-09-08 23:50:00,60.1,54.9,30.31,East,90,3.0,4.0,83,0.00,,,0.22,meteohub,2013-09-09 03:50:00,
2013-09-08 23:51:00,60.1,54.9,30.31,East,90,3.0,4.0,83,0.00,,,0.22,meteohub,2013-09-09 03:51:00,
2013-09-08 23:52:00,60.1,54.9,30.31,East,90,4.0,4.0,83,0.00,,,0.22,meteohub,2013-09-09 03:52:00,
2013-09-08 23:53:00,60.1,54.9,30.32,East,90,3.0,4.0,83,0.00,,,0.22,meteohub,2013-09-09 03:53:00,
2013-09-08 23:56:00,60.1,54.5,30.32,East,90,3.0,4.0,82,0.00,,,0.22,meteohub,2013-09-09 03:56:00,
2013-09-08 23:57:00,60.1,54.5,30.31,East,90,3.0,4.0,82,0.00,,,0.22,meteohub,2013-09-09 03:57:00,
2013-09-08 23:58:00,60.1,54.5,30.31,East,90,3.0,4.0,82,0.00,,,0.22,meteohub,2013-09-09 03:58:00,
2013-09-08 23:59:00,60.1,54.5,30.31,East,90,3.0,4.0,82,0.00,,,0.22,meteohub,2013-09-09 03:59:00,